Wetterdaten: Freitag, 09.09.2016
Datum Zeit Temp. Aussen Temp. o. S. +5cm Feuchte Auss BlattFeu 1 Luftdruck Regen Sonnenschein Regendauer Solar Windben Empfang
09.09.2016 00:00 20,2 C 18,9 C 16,7 C 79 % 0 lf 1014,8 hPa 0,0 l/m 0 min 0 min 5 W/m 12,6 km/h (3 Bft) 93,48 %
09.09.2016 00:02 20,2 C 18,9 C 16,7 C 79 % 0 lf 1014,8 hPa 0,0 l/m 0 min 0 min 5 W/m 16,7 km/h (3 Bft) 100,00 %
09.09.2016 00:05 20,1 C 18,9 C 17,2 C 80 % 0 lf 1014,9 hPa 0,0 l/m 0 min 0 min 5 W/m 16,7 km/h (3 Bft) 97,18 %
09.09.2016 00:06 20,1 C 18,9 C 17,2 C 80 % 0 lf 1014,9 hPa 0,0 l/m 0 min 0 min 5 W/m 4,2 km/h (1 Bft) 100,00 %
09.09.2016 00:08 20,0 C 18,9 C 17,2 C 80 % 0 lf 1014,9 hPa 0,0 l/m 0 min 0 min 5 W/m 12,6 km/h (3 Bft) 96,00 %
09.09.2016 00:10 19,9 C 19,4 C 17,2 C 80 % 0 lf 1014,9 hPa 0,0 l/m 0 min 0 min 5 W/m 25,1 km/h (4 Bft) 97,14 %
09.09.2016 00:12 19,9 C 19,4 C 17,8 C 80 % 0 lf 1014,9 hPa 0,0 l/m 0 min 0 min 5 W/m 18,8 km/h (3 Bft) 96,36 %
09.09.2016 00:14 19,8 C 19,4 C 17,8 C 79 % 0 lf 1015,0 hPa 0,0 l/m 0 min 0 min 5 W/m 23,0 km/h (4 Bft) 98,00 %
09.09.2016 00:16 19,8 C 19,4 C 17,8 C 79 % 0 lf 1015,0 hPa 0,0 l/m 0 min 0 min 5 W/m 16,7 km/h (3 Bft) 97,14 %
09.09.2016 00:18 19,8 C 19,4 C 17,8 C 79 % 0 lf 1015,1 hPa 0,0 l/m 0 min 0 min 5 W/m 18,8 km/h (3 Bft) 96,43 %
09.09.2016 00:20 19,8 C 19,4 C 17,8 C 79 % 0 lf 1015,1 hPa 0,0 l/m 0 min 0 min 5 W/m 16,7 km/h (3 Bft) 97,87 %
09.09.2016 00:22 19,8 C 20,0 C 17,8 C 80 % 0 lf 1015,2 hPa 0,0 l/m 0 min 0 min 5 W/m 14,6 km/h (3 Bft) 95,92 %
09.09.2016 00:24 19,8 C 20,0 C 18,3 C 79 % 0 lf 1015,1 hPa 0,0 l/m 0 min 0 min 5 W/m 31,4 km/h (5 Bft) 97,22 %
09.09.2016 00:26 19,8 C 20,0 C 18,3 C 79 % 0 lf 1015,1 hPa 0,0 l/m 0 min 0 min 5 W/m 23,0 km/h (4 Bft) 96,36 %
09.09.2016 00:28 19,8 C 20,0 C 18,3 C 79 % 0 lf 1015,2 hPa 0,0 l/m 0 min 0 min 5 W/m 18,8 km/h (3 Bft) 98,00 %
09.09.2016 00:30 19,8 C 20,0 C 18,3 C 79 % 0 lf 1015,2 hPa 0,0 l/m 0 min 0 min 5 W/m 14,6 km/h (3 Bft) 97,14 %
09.09.2016 00:32 19,8 C 20,0 C 18,3 C 79 % 0 lf 1015,2 hPa 0,0 l/m 0 min 0 min 5 W/m 14,6 km/h (3 Bft) 96,43 %
09.09.2016 00:34 19,8 C 20,0 C 18,3 C 79 % 0 lf 1015,2 hPa 0,0 l/m 0 min 0 min 5 W/m 16,7 km/h (3 Bft) 91,84 %
09.09.2016 00:36 19,8 C 20,0 C 18,3 C 79 % 0 lf 1015,2 hPa 0,0 l/m 0 min 0 min 0 W/m 8,4 km/h (2 Bft) 100,00 %
09.09.2016 00:38 19,8 C 20,0 C 18,3 C 79 % 0 lf 1015,2 hPa 0,0 l/m 0 min 0 min 4 W/m 10,5 km/h (2 Bft) 98,18 %
09.09.2016 00:40 19,8 C 20,0 C 18,3 C 79 % 0 lf 1015,3 hPa 0,0 l/m 0 min 0 min 2 W/m 12,6 km/h (3 Bft) 100,00 %
09.09.2016 00:42 19,8 C 20,0 C 18,3 C 79 % 0 lf 1015,3 hPa 0,0 l/m 0 min 0 min 0 W/m 14,6 km/h (3 Bft) 100,00 %
09.09.2016 00:44 19,8 C 20,0 C 18,3 C 79 % 0 lf 1015,4 hPa 0,0 l/m 0 min 0 min 3 W/m 10,5 km/h (2 Bft) 98,00 %
09.09.2016 00:46 19,8 C 20,0 C 18,3 C 79 % 0 lf 1015,4 hPa 0,0 l/m 0 min 0 min 4 W/m 10,5 km/h (2 Bft) 97,14 %
09.09.2016 00:48 19,8 C 20,0 C 18,3 C 79 % 0 lf 1015,4 hPa 0,0 l/m 0 min 0 min 0 W/m 4,2 km/h (1 Bft) 100,00 %
09.09.2016 00:50 19,8 C 20,0 C 18,3 C 79 % 0 lf 1015,4 hPa 0,0 l/m 0 min 0 min 5 W/m 12,6 km/h (3 Bft) 98,18 %
09.09.2016 00:52 19,8 C 20,0 C 18,3 C 79 % 0 lf 1015,4 hPa 0,0 l/m 0 min 0 min 5 W/m 12,6 km/h (3 Bft) 94,00 %
09.09.2016 00:54 19,8 C 20,0 C 18,3 C 79 % 0 lf 1015,4 hPa 0,0 l/m 0 min 0 min 5 W/m 14,6 km/h (3 Bft) 100,00 %
09.09.2016 00:56 19,8 C 20,0 C 18,3 C 79 % 0 lf 1015,4 hPa 0,0 l/m 0 min 0 min 5 W/m 10,5 km/h (2 Bft) 100,00 %
09.09.2016 00:58 19,8 C 20,0 C 18,3 C 78 % 0 lf 1015,4 hPa 0,0 l/m 0 min 0 min 5 W/m 16,7 km/h (3 Bft) 100,00 %
09.09.2016 01:00 19,8 C 20,0 C 18,3 C 78 % 0 lf 1015,4 hPa 0,0 l/m 0 min 0 min 5 W/m 16,7 km/h (3 Bft) 100,00 %
09.09.2016 01:02 19,8 C 20,0 C 18,3 C 78 % 0 lf 1015,4 hPa 0,0 l/m 0 min 0 min 5 W/m 20,9 km/h (4 Bft) 100,00 %
09.09.2016 01:04 19,8 C 19,4 C 18,3 C 78 % 0 lf 1015,5 hPa 0,0 l/m 0 min 0 min 5 W/m 14,6 km/h (3 Bft) 100,00 %
09.09.2016 01:06 19,8 C 19,4 C 17,8 C 78 % 0 lf 1015,5 hPa 0,0 l/m 0 min 0 min 5 W/m 10,5 km/h (2 Bft) 98,00 %
09.09.2016 01:08 19,8 C 19,4 C 18,3 C 78 % 0 lf 1015,5 hPa 0,0 l/m 0 min 0 min 5 W/m 10,5 km/h (2 Bft) 100,00 %
09.09.2016 01:10 19,8 C 19,4 C 17,8 C 78 % 0 lf 1015,4 hPa 0,0 l/m 0 min 0 min 5 W/m 14,6 km/h (3 Bft) 94,29 %
09.09.2016 01:12 19,8 C 19,4 C 17,8 C 78 % 0 lf 1015,4 hPa 0,0 l/m 0 min 0 min 5 W/m 8,4 km/h (2 Bft) 96,36 %
09.09.2016 01:14 19,8 C 19,4 C 17,8 C 79 % 0 lf 1015,5 hPa 0,0 l/m 0 min 0 min 5 W/m 10,5 km/h (2 Bft) 94,00 %
09.09.2016 01:16 19,8 C 19,4 C 17,8 C 79 % 0 lf 1015,5 hPa 0,0 l/m 0 min 0 min 5 W/m 10,5 km/h (2 Bft) 94,29 %
09.09.2016 01:18 19,8 C 19,4 C 17,8 C 79 % 0 lf 1015,5 hPa 0,0 l/m 0 min 0 min 5 W/m 14,6 km/h (3 Bft) 97,87 %
09.09.2016 01:20 19,7 C 19,4 C 17,8 C 79 % 0 lf 1015,5 hPa 0,0 l/m 0 min 0 min 5 W/m 10,5 km/h (2 Bft) 98,21 %
09.09.2016 01:22 19,7 C 19,4 C 17,8 C 79 % 0 lf 1015,5 hPa 0,0 l/m 0 min 0 min 5 W/m 8,4 km/h (2 Bft) 97,83 %
09.09.2016 01:24 19,7 C 19,4 C 17,8 C 79 % 0 lf 1015,5 hPa 0,0 l/m 0 min 0 min 5 W/m 8,4 km/h (2 Bft) 95,74 %
09.09.2016 01:26 19,7 C 19,4 C 17,8 C 79 % 0 lf 1015,5 hPa 0,0 l/m 0 min 0 min 5 W/m 16,7 km/h (3 Bft) 93,62 %
09.09.2016 01:28 19,7 C 19,4 C 17,8 C 79 % 0 lf 1015,4 hPa 0,0 l/m 0 min 0 min 5 W/m 8,4 km/h (2 Bft) 95,74 %
09.09.2016 01:30 19,7 C 19,4 C 17,8 C 79 % 0 lf 1015,5 hPa 0,0 l/m 0 min 0 min 5 W/m 12,6 km/h (3 Bft) 97,87 %
09.09.2016 01:32 19,7 C 19,4 C 17,8 C 79 % 0 lf 1015,5 hPa 0,0 l/m 0 min 0 min 5 W/m 10,5 km/h (2 Bft) 95,74 %
09.09.2016 01:34 19,7 C 19,4 C 17,8 C 79 % 0 lf 1015,5 hPa 0,0 l/m 0 min 0 min 5 W/m 8,4 km/h (2 Bft) 95,65 %
09.09.2016 01:36 19,7 C 19,4 C 17,8 C 79 % 0 lf 1015,5 hPa 0,0 l/m 0 min 0 min 5 W/m 8,4 km/h (2 Bft) 93,62 %
09.09.2016 01:38 19,6 C 19,4 C 17,8 C 79 % 0 lf 1015,5 hPa 0,0 l/m 0 min 0 min 5 W/m 8,4 km/h (2 Bft) 94,00 %
09.09.2016 01:40 19,6 C 19,4 C 17,8 C 79 % 0 lf 1015,5 hPa 0,0 l/m 0 min 0 min 5 W/m 12,6 km/h (3 Bft) 94,29 %
09.09.2016 01:42 19,6 C 19,4 C 17,8 C 79 % 0 lf 1015,5 hPa 0,0 l/m 0 min 0 min 5 W/m 8,4 km/h (2 Bft) 94,34 %
09.09.2016 01:44 19,6 C 19,4 C 17,8 C 79 % 0 lf 1015,6 hPa 0,0 l/m 0 min 0 min 5 W/m 8,4 km/h (2 Bft) 94,00 %
09.09.2016 01:46 19,6 C 19,4 C 17,8 C 79 % 0 lf 1015,5 hPa 0,0 l/m 0 min 0 min 5 W/m 8,4 km/h (2 Bft) 86,96 %
09.09.2016 01:48 19,6 C 19,4 C 17,8 C 80 % 0 lf 1015,5 hPa 0,0 l/m 0 min 0 min 5 W/m 8,4 km/h (2 Bft) 94,00 %
09.09.2016 01:50 19,6 C 19,4 C 17,8 C 80 % 0 lf 1015,6 hPa 0,0 l/m 0 min 0 min 5 W/m 8,4 km/h (2 Bft) 94,29 %
09.09.2016 01:52 19,6 C 19,4 C 17,8 C 80 % 0 lf 1015,6 hPa 0,0 l/m 0 min 0 min 5 W/m 12,6 km/h (3 Bft) 94,34 %
09.09.2016 01:54 19,5 C 19,4 C 17,8 C 80 % 0 lf 1015,5 hPa 0,0 l/m 0 min 0 min 0 W/m 8,4 km/h (2 Bft) 95,74 %
09.09.2016 01:56 19,5 C 19,4 C 17,8 C 80 % 0 lf 1015,6 hPa 0,0 l/m 0 min 0 min 5 W/m 8,4 km/h (2 Bft) 89,36 %
09.09.2016 01:58 19,5 C 19,4 C 17,8 C 80 % 0 lf 1015,6 hPa 0,0 l/m 0 min 0 min 5 W/m 4,2 km/h (1 Bft) 91,84 %
09.09.2016 02:00 19,5 C 19,4 C 17,8 C 80 % 0 lf 1015,6 hPa 0,0 l/m 0 min 0 min 5 W/m 6,3 km/h (2 Bft) 88,00 %
09.09.2016 02:02 19,5 C 19,4 C 17,8 C 80 % 0 lf 1015,6 hPa 0,0 l/m 0 min 0 min 5 W/m 8,4 km/h (2 Bft) 88,57 %
09.09.2016 02:04 19,4 C 18,9 C 17,8 C 80 % 0 lf 1015,6 hPa 0,0 l/m 0 min 0 min 5 W/m 14,6 km/h (3 Bft) 90,57 %
09.09.2016 02:06 19,4 C 19,4 C 17,8 C 80 % 0 lf 1015,7 hPa 0,0 l/m 0 min 0 min 5 W/m 12,6 km/h (3 Bft) 94,00 %
09.09.2016 02:08 19,4 C 19,4 C 17,8 C 80 % 0 lf 1015,7 hPa 0,0 l/m 0 min 0 min 5 W/m 16,7 km/h (3 Bft) 91,84 %
09.09.2016 02:10 19,4 C 19,4 C 17,8 C 80 % 0 lf 1015,7 hPa 0,0 l/m 0 min 0 min 5 W/m 12,6 km/h (3 Bft) 94,44 %
09.09.2016 02:12 19,4 C 18,9 C 17,8 C 80 % 0 lf 1015,6 hPa 0,0 l/m 0 min 0 min 5 W/m 10,5 km/h (2 Bft) 90,91 %
09.09.2016 02:14 19,4 C 18,9 C 17,8 C 80 % 0 lf 1015,7 hPa 0,0 l/m 0 min 0 min 5 W/m 12,6 km/h (3 Bft) 94,00 %
09.09.2016 02:16 19,3 C 18,9 C 17,8 C 80 % 0 lf 1015,7 hPa 0,0 l/m 0 min 0 min 5 W/m 10,5 km/h (2 Bft) 91,43 %
09.09.2016 02:18 19,3 C 18,9 C 17,2 C 80 % 0 lf 1015,6 hPa 0,0 l/m 0 min 0 min 5 W/m 16,7 km/h (3 Bft) 91,49 %
09.09.2016 02:20 19,3 C 18,9 C 17,2 C 79 % 0 lf 1015,7 hPa 0,0 l/m 0 min 0 min 5 W/m 10,5 km/h (2 Bft) 92,73 %
09.09.2016 02:22 19,3 C 18,9 C 17,2 C 79 % 0 lf 1015,8 hPa 0,0 l/m 0 min 0 min 5 W/m 12,6 km/h (3 Bft) 96,00 %
09.09.2016 02:24 19,3 C 18,9 C 17,2 C 79 % 0 lf 1015,8 hPa 0,0 l/m 0 min 0 min 5 W/m 10,5 km/h (2 Bft) 97,56 %
09.09.2016 02:26 19,2 C 18,9 C 17,2 C 79 % 0 lf 1015,7 hPa 0,0 l/m 0 min 0 min 5 W/m 14,6 km/h (3 Bft) 94,00 %
09.09.2016 02:28 19,2 C 18,9 C 17,2 C 79 % 0 lf 1015,7 hPa 0,0 l/m 0 min 0 min 5 W/m 16,7 km/h (3 Bft) 95,74 %
09.09.2016 02:30 19,2 C 18,9 C 17,2 C 79 % 0 lf 1015,7 hPa 0,0 l/m 0 min 0 min 5 W/m 18,8 km/h (3 Bft) 93,62 %
09.09.2016 02:32 19,2 C 18,9 C 17,2 C 78 % 0 lf 1015,7 hPa 0,0 l/m 0 min 0 min 0 W/m 20,9 km/h (4 Bft) 97,96 %
09.09.2016 02:34 19,1 C 18,9 C 17,2 C 78 % 0 lf 1015,7 hPa 0,0 l/m 0 min 0 min 0 W/m 16,7 km/h (3 Bft) 97,22 %
09.09.2016 02:36 19,1 C 18,9 C 17,2 C 77 % 0 lf 1015,7 hPa 0,0 l/m 0 min 0 min 0 W/m 23,0 km/h (4 Bft) 98,18 %
09.09.2016 02:38 19,0 C 18,3 C 17,2 C 77 % 0 lf 1015,8 hPa 0,0 l/m 0 min 0 min 0 W/m 18,8 km/h (3 Bft) 98,00 %
09.09.2016 02:40 18,9 C 18,3 C 16,7 C 77 % 0 lf 1015,8 hPa 0,0 l/m 0 min 0 min 0 W/m 14,6 km/h (3 Bft) 93,62 %
09.09.2016 02:42 18,9 C 18,3 C 16,7 C 77 % 0 lf 1015,8 hPa 0,0 l/m 0 min 0 min 0 W/m 10,5 km/h (2 Bft) 94,29 %
09.09.2016 02:44 18,8 C 18,3 C 16,7 C 77 % 0 lf 1015,8 hPa 0,0 l/m 0 min 0 min 0 W/m 18,8 km/h (3 Bft) 95,74 %
09.09.2016 02:46 18,8 C 17,8 C 16,1 C 76 % 0 lf 1015,8 hPa 0,0 l/m 0 min 0 min 0 W/m 18,8 km/h (3 Bft) 95,74 %
09.09.2016 02:48 18,7 C 17,8 C 16,1 C 76 % 0 lf 1015,8 hPa 0,0 l/m 0 min 0 min 0 W/m 14,6 km/h (3 Bft) 100,00 %
09.09.2016 02:50 18,7 C 17,8 C 16,1 C 76 % 0 lf 1015,9 hPa 0,0 l/m 0 min 0 min 0 W/m 16,7 km/h (3 Bft) 100,00 %
09.09.2016 02:52 18,6 C 17,8 C 16,1 C 76 % 0 lf 1015,8 hPa 0,0 l/m 0 min 0 min 5 W/m 20,9 km/h (4 Bft) 100,00 %
09.09.2016 02:54 18,5 C 17,2 C 15,6 C 76 % 0 lf 1015,9 hPa 0,0 l/m 0 min 0 min 0 W/m 12,6 km/h (3 Bft) 100,00 %
09.09.2016 02:56 18,4 C 17,2 C 15,6 C 76 % 0 lf 1015,9 hPa 0,0 l/m 0 min 0 min 0 W/m 14,6 km/h (3 Bft) 93,88 %
09.09.2016 02:58 18,3 C 17,2 C 15,6 C 76 % 0 lf 1016,0 hPa 0,0 l/m 0 min 0 min 0 W/m 14,6 km/h (3 Bft) 100,00 %
09.09.2016 03:00 18,3 C 17,2 C 15,6 C 77 % 0 lf 1016,0 hPa 0,0 l/m 0 min 0 min 0 W/m 14,6 km/h (3 Bft) 97,87 %
09.09.2016 03:02 18,2 C 17,2 C 15,6 C 77 % 0 lf 1016,1 hPa 0,0 l/m 0 min 0 min 0 W/m 14,6 km/h (3 Bft) 100,00 %
09.09.2016 03:04 18,1 C 17,2 C 15,6 C 77 % 0 lf 1016,1 hPa 0,0 l/m 0 min 0 min 0 W/m 16,7 km/h (3 Bft) 100,00 %
09.09.2016 03:06 18,1 C 17,2 C 15,0 C 77 % 0 lf 1016,1 hPa 0,0 l/m 0 min 0 min 0 W/m 14,6 km/h (3 Bft) 100,00 %
09.09.2016 03:08 17,9 C 16,7 C 15,0 C 77 % 0 lf 1016,2 hPa 0,0 l/m 0 min 0 min 0 W/m 14,6 km/h (3 Bft) 93,62 %
09.09.2016 03:10 17,9 C 16,7 C 15,0 C 77 % 0 lf 1016,2 hPa 0,0 l/m 0 min 0 min 0 W/m 14,6 km/h (3 Bft) 100,00 %
09.09.2016 03:12 17,8 C 16,7 C 15,0 C 78 % 0 lf 1016,2 hPa 0,0 l/m 0 min 0 min 0 W/m 16,7 km/h (3 Bft) 100,00 %
09.09.2016 03:14 17,8 C 16,7 C 15,0 C 78 % 0 lf 1016,3 hPa 0,0 l/m 0 min 0 min 0 W/m 12,6 km/h (3 Bft) 97,37 %
09.09.2016 03:16 17,7 C 16,7 C 15,0 C 78 % 0 lf 1016,4 hPa 0,0 l/m 0 min 0 min 0 W/m 14,6 km/h (3 Bft) 100,00 %
09.09.2016 03:18 17,6 C 16,7 C 15,0 C 78 % 0 lf 1016,4 hPa 0,0 l/m 0 min 0 min 0 W/m 14,6 km/h (3 Bft) 100,00 %
09.09.2016 03:20 17,6 C 16,7 C 15,0 C 79 % 0 lf 1016,4 hPa 0,0 l/m 0 min 0 min 0 W/m 16,7 km/h (3 Bft) 98,18 %
09.09.2016 03:22 17,5 C 16,7 C 15,0 C 79 % 0 lf 1016,4 hPa 0,0 l/m 0 min 0 min 0 W/m 8,4 km/h (2 Bft) 100,00 %
09.09.2016 03:24 17,4 C 16,7 C 15,0 C 79 % 0 lf 1016,4 hPa 0,0 l/m 0 min 0 min 0 W/m 16,7 km/h (3 Bft) 95,74 %
09.09.2016 03:26 17,4 C 16,1 C 14,4 C 79 % 0 lf 1016,4 hPa 0,0 l/m 0 min 0 min 0 W/m 12,6 km/h (3 Bft) 97,87 %
09.09.2016 03:28 17,3 C 16,1 C 14,4 C 79 % 0 lf 1016,5 hPa 0,0 l/m 0 min 0 min 3 W/m 12,6 km/h (3 Bft) 100,00 %
09.09.2016 03:30 17,3 C 16,1 C 14,4 C 79 % 0 lf 1016,6 hPa 0,0 l/m 0 min 0 min 5 W/m 12,6 km/h (3 Bft) 100,00 %
09.09.2016 03:32 17,2 C 16,1 C 14,4 C 79 % 0 lf 1016,5 hPa 0,0 l/m 0 min 0 min 5 W/m 14,6 km/h (3 Bft) 100,00 %
09.09.2016 03:34 17,2 C 16,1 C 14,4 C 80 % 0 lf 1016,5 hPa 0,0 l/m 0 min 0 min 5 W/m 8,4 km/h (2 Bft) 97,87 %
09.09.2016 03:36 17,1 C 16,1 C 14,4 C 80 % 0 lf 1016,5 hPa 0,0 l/m 0 min 0 min 5 W/m 12,6 km/h (3 Bft) 100,00 %
09.09.2016 03:38 17,1 C 16,1 C 14,4 C 80 % 0 lf 1016,5 hPa 0,0 l/m 0 min 0 min 5 W/m 12,6 km/h (3 Bft) 97,87 %
09.09.2016 03:40 17,1 C 16,1 C 14,4 C 80 % 0 lf 1016,5 hPa 0,0 l/m 0 min 0 min 5 W/m 12,6 km/h (3 Bft) 91,49 %
09.09.2016 03:42 17,0 C 16,1 C 14,4 C 80 % 0 lf 1016,4 hPa 0,0 l/m 0 min 0 min 5 W/m 12,6 km/h (3 Bft) 100,00 %
09.09.2016 03:44 16,9 C 16,1 C 14,4 C 81 % 0 lf 1016,5 hPa 0,0 l/m 0 min 0 min 5 W/m 10,5 km/h (2 Bft) 97,96 %
09.09.2016 03:46 16,9 C 16,1 C 14,4 C 81 % 0 lf 1016,5 hPa 0,0 l/m 0 min 0 min 5 W/m 8,4 km/h (2 Bft) 100,00 %
09.09.2016 03:48 16,9 C 16,1 C 14,4 C 81 % 0 lf 1016,5 hPa 0,0 l/m 0 min 0 min 5 W/m 10,5 km/h (2 Bft) 100,00 %
09.09.2016 03:50 16,8 C 16,1 C 14,4 C 81 % 0 lf 1016,6 hPa 0,0 l/m 0 min 0 min 5 W/m 12,6 km/h (3 Bft) 100,00 %
09.09.2016 03:52 16,8 C 16,1 C 14,4 C 81 % 0 lf 1016,6 hPa 0,0 l/m 0 min 0 min 5 W/m 10,5 km/h (2 Bft) 100,00 %
09.09.2016 03:54 16,7 C 16,1 C 14,4 C 81 % 0 lf 1016,6 hPa 0,0 l/m 0 min 0 min 5 W/m 12,6 km/h (3 Bft) 97,83 %
09.09.2016 03:56 16,7 C 16,1 C 14,4 C 81 % 0 lf 1016,5 hPa 0,0 l/m 0 min 0 min 5 W/m 12,6 km/h (3 Bft) 95,74 %
09.09.2016 03:58 16,7 C 16,1 C 14,4 C 81 % 0 lf 1016,6 hPa 0,0 l/m 0 min 0 min 5 W/m 16,7 km/h (3 Bft) 95,45 %
09.09.2016 04:00 16,6 C 16,1 C 14,4 C 81 % 0 lf 1016,6 hPa 0,0 l/m 0 min 0 min 5 W/m 14,6 km/h (3 Bft) 98,00 %
09.09.2016 04:02 16,6 C 16,1 C 14,4 C 81 % 0 lf 1016,5 hPa 0,0 l/m 0 min 0 min 5 W/m 12,6 km/h (3 Bft) 100,00 %
09.09.2016 04:04 16,5 C 15,6 C 14,4 C 82 % 0 lf 1016,4 hPa 0,0 l/m 0 min 0 min 5 W/m 14,6 km/h (3 Bft) 97,37 %
09.09.2016 04:06 16,5 C 15,6 C 14,4 C 82 % 0 lf 1016,5 hPa 0,0 l/m 0 min 0 min 5 W/m 16,7 km/h (3 Bft) 97,96 %
09.09.2016 04:08 16,4 C 15,6 C 14,4 C 82 % 0 lf 1016,5 hPa 0,0 l/m 0 min 0 min 5 W/m 14,6 km/h (3 Bft) 100,00 %
09.09.2016 04:10 16,4 C 15,6 C 14,4 C 82 % 0 lf 1016,5 hPa 0,0 l/m 0 min 0 min 5 W/m 14,6 km/h (3 Bft) 95,45 %
09.09.2016 04:12 16,4 C 15,6 C 13,9 C 82 % 0 lf 1016,5 hPa 0,0 l/m 0 min 0 min 0 W/m 12,6 km/h (3 Bft) 100,00 %
09.09.2016 04:14 16,3 C 15,6 C 13,9 C 82 % 0 lf 1016,4 hPa 0,0 l/m 0 min 0 min 2 W/m 14,6 km/h (3 Bft) 97,87 %
09.09.2016 04:16 16,3 C 15,6 C 13,9 C 82 % 0 lf 1016,4 hPa 0,0 l/m 0 min 0 min 0 W/m 8,4 km/h (2 Bft) 97,73 %
09.09.2016 04:18 16,2 C 15,6 C 13,9 C 82 % 0 lf 1016,5 hPa 0,0 l/m 0 min 0 min 0 W/m 6,3 km/h (2 Bft) 97,96 %
09.09.2016 04:20 16,2 C 15,0 C 13,9 C 82 % 0 lf 1016,5 hPa 0,0 l/m 0 min 0 min 4 W/m 6,3 km/h (2 Bft) 95,74 %
09.09.2016 04:22 16,2 C 15,0 C 13,9 C 82 % 0 lf 1016,5 hPa 0,0 l/m 0 min 0 min 2 W/m 6,3 km/h (2 Bft) 93,18 %
09.09.2016 04:24 16,2 C 15,0 C 13,3 C 82 % 0 lf 1016,6 hPa 0,0 l/m 0 min 0 min 0 W/m 8,4 km/h (2 Bft) 89,36 %
09.09.2016 04:26 16,1 C 15,0 C 13,3 C 82 % 0 lf 1016,5 hPa 0,0 l/m 0 min 0 min 5 W/m 10,5 km/h (2 Bft) 94,00 %
09.09.2016 04:28 16,1 C 15,0 C 13,3 C 82 % 0 lf 1016,6 hPa 0,0 l/m 0 min 0 min 5 W/m 10,5 km/h (2 Bft) 95,74 %
09.09.2016 04:30 16,1 C 15,0 C 13,3 C 83 % 0 lf 1016,5 hPa 0,0 l/m 0 min 0 min 5 W/m 12,6 km/h (3 Bft) 97,67 %
09.09.2016 04:32 16,0 C 15,0 C 13,3 C 83 % 0 lf 1016,6 hPa 0,0 l/m 0 min 0 min 5 W/m 10,5 km/h (2 Bft) 96,00 %
09.09.2016 04:34 15,9 C 15,0 C 13,3 C 83 % 0 lf 1016,6 hPa 0,0 l/m 0 min 0 min 4 W/m 10,5 km/h (2 Bft) 95,74 %
09.09.2016 04:36 15,9 C 15,0 C 13,3 C 83 % 0 lf 1016,6 hPa 0,0 l/m 0 min 0 min 0 W/m 14,6 km/h (3 Bft) 97,87 %
09.09.2016 04:38 15,9 C 15,0 C 13,3 C 83 % 0 lf 1016,5 hPa 0,0 l/m 0 min 0 min 2 W/m 12,6 km/h (3 Bft) 96,00 %
09.09.2016 04:40 15,8 C 15,0 C 13,3 C 83 % 1 lf 1016,6 hPa 0,0 l/m 0 min 0 min 4 W/m 8,4 km/h (2 Bft) 97,14 %
09.09.2016 04:42 15,8 C 15,0 C 13,3 C 84 % 1 lf 1016,6 hPa 0,0 l/m 0 min 0 min 5 W/m 14,6 km/h (3 Bft) 92,73 %
09.09.2016 04:44 15,7 C 15,0 C 13,3 C 84 % 1 lf 1016,6 hPa 0,0 l/m 0 min 0 min 5 W/m 8,4 km/h (2 Bft) 96,00 %
09.09.2016 04:46 15,7 C 14,4 C 13,3 C 84 % 1 lf 1016,6 hPa 0,0 l/m 0 min 0 min 5 W/m 8,4 km/h (2 Bft) 97,14 %
09.09.2016 04:48 15,7 C 14,4 C 13,3 C 84 % 1 lf 1016,6 hPa 0,0 l/m 0 min 0 min 5 W/m 10,5 km/h (2 Bft) 89,36 %
09.09.2016 04:50 15,6 C 14,4 C 13,3 C 84 % 1 lf 1016,6 hPa 0,0 l/m 0 min 0 min 0 W/m 10,5 km/h (2 Bft) 94,64 %
09.09.2016 04:52 15,6 C 14,4 C 12,8 C 84 % 1 lf 1016,7 hPa 0,0 l/m 0 min 0 min 0 W/m 10,5 km/h (2 Bft) 93,88 %
09.09.2016 04:54 15,6 C 14,4 C 12,8 C 84 % 1 lf 1016,6 hPa 0,0 l/m 0 min 0 min 0 W/m 8,4 km/h (2 Bft) 91,67 %
09.09.2016 04:56 15,5 C 14,4 C 12,8 C 84 % 1 lf 1016,6 hPa 0,0 l/m 0 min 0 min 5 W/m 10,5 km/h (2 Bft) 94,23 %
09.09.2016 04:58 15,5 C 14,4 C 12,8 C 84 % 1 lf 1016,6 hPa 0,0 l/m 0 min 0 min 5 W/m 8,4 km/h (2 Bft) 91,49 %
09.09.2016 05:00 15,4 C 14,4 C 12,8 C 84 % 1 lf 1016,6 hPa 0,0 l/m 0 min 0 min 0 W/m 10,5 km/h (2 Bft) 90,00 %
09.09.2016 05:02 15,4 C 14,4 C 12,8 C 84 % 1 lf 1016,5 hPa 0,0 l/m 0 min 0 min 0 W/m 10,5 km/h (2 Bft) 92,00 %
09.09.2016 05:04 15,4 C 14,4 C 12,8 C 85 % 1 lf 1016,6 hPa 0,0 l/m 0 min 0 min 0 W/m 8,4 km/h (2 Bft) 89,13 %
09.09.2016 05:06 15,4 C 14,4 C 12,8 C 85 % 1 lf 1016,6 hPa 0,0 l/m 0 min 0 min 0 W/m 6,3 km/h (2 Bft) 93,62 %
09.09.2016 05:08 15,3 C 14,4 C 12,8 C 85 % 1 lf 1016,6 hPa 0,0 l/m 0 min 0 min 0 W/m 6,3 km/h (2 Bft) 92,11 %
09.09.2016 05:10 15,3 C 14,4 C 12,8 C 85 % 1 lf 1016,6 hPa 0,0 l/m 0 min 0 min 0 W/m 10,5 km/h (2 Bft) 95,74 %
09.09.2016 05:12 15,3 C 14,4 C 12,8 C 85 % 1 lf 1016,6 hPa 0,0 l/m 0 min 0 min 0 W/m 8,4 km/h (2 Bft) 94,64 %
09.09.2016 05:14 15,3 C 14,4 C 12,8 C 85 % 1 lf 1016,6 hPa 0,0 l/m 0 min 0 min 0 W/m 10,5 km/h (2 Bft) 95,74 %
09.09.2016 05:16 15,2 C 14,4 C 12,8 C 85 % 1 lf 1016,6 hPa 0,0 l/m 0 min 0 min 3 W/m 8,4 km/h (2 Bft) 93,48 %
09.09.2016 05:18 15,2 C 14,4 C 12,8 C 85 % 1 lf 1016,6 hPa 0,0 l/m 0 min 0 min 2 W/m 12,6 km/h (3 Bft) 92,00 %
09.09.2016 05:20 15,2 C 14,4 C 12,8 C 85 % 1 lf 1016,6 hPa 0,0 l/m 0 min 0 min 0 W/m 6,3 km/h (2 Bft) 93,62 %
09.09.2016 05:22 15,1 C 14,4 C 12,8 C 86 % 1 lf 1016,6 hPa 0,0 l/m 0 min 0 min 5 W/m 10,5 km/h (2 Bft) 95,74 %
09.09.2016 05:24 15,1 C 14,4 C 12,8 C 86 % 1 lf 1016,6 hPa 0,0 l/m 0 min 0 min 5 W/m 10,5 km/h (2 Bft) 94,74 %
09.09.2016 05:26 15,1 C 14,4 C 12,8 C 86 % 1 lf 1016,6 hPa 0,0 l/m 0 min 0 min 5 W/m 10,5 km/h (2 Bft) 87,23 %
09.09.2016 05:28 15,1 C 14,4 C 12,8 C 86 % 1 lf 1016,7 hPa 0,0 l/m 0 min 0 min 0 W/m 10,5 km/h (2 Bft) 95,65 %
09.09.2016 05:30 15,0 C 14,4 C 12,8 C 86 % 1 lf 1016,7 hPa 0,0 l/m 0 min 0 min 0 W/m 10,5 km/h (2 Bft) 93,62 %
09.09.2016 05:32 14,9 C 14,4 C 12,8 C 86 % 1 lf 1016,7 hPa 0,0 l/m 0 min 0 min 0 W/m 4,2 km/h (1 Bft) 92,86 %
09.09.2016 05:34 14,9 C 13,9 C 12,8 C 86 % 1 lf 1016,7 hPa 0,0 l/m 0 min 0 min 0 W/m 8,4 km/h (2 Bft) 92,11 %
09.09.2016 05:36 14,9 C 13,9 C 12,8 C 86 % 1 lf 1016,7 hPa 0,0 l/m 0 min 0 min 0 W/m 10,5 km/h (2 Bft) 93,62 %
09.09.2016 05:38 14,9 C 13,9 C 12,8 C 86 % 1 lf 1016,7 hPa 0,0 l/m 0 min 0 min 0 W/m 8,4 km/h (2 Bft) 95,74 %
09.09.2016 05:40 14,8 C 13,9 C 12,8 C 86 % 1 lf 1016,7 hPa 0,0 l/m 0 min 0 min 4 W/m 8,4 km/h (2 Bft) 93,62 %
09.09.2016 05:42 14,8 C 13,9 C 12,8 C 87 % 1 lf 1016,8 hPa 0,0 l/m 0 min 0 min 0 W/m 10,5 km/h (2 Bft) 89,13 %
09.09.2016 05:44 14,8 C 13,9 C 12,8 C 87 % 1 lf 1016,7 hPa 0,0 l/m 0 min 0 min 0 W/m 6,3 km/h (2 Bft) 98,21 %
09.09.2016 05:46 14,8 C 14,4 C 12,8 C 87 % 1 lf 1016,7 hPa 0,0 l/m 0 min 0 min 0 W/m 8,4 km/h (2 Bft) 94,74 %
09.09.2016 05:48 14,8 C 14,4 C 12,8 C 87 % 1 lf 1016,8 hPa 0,0 l/m 0 min 0 min 0 W/m 6,3 km/h (2 Bft) 98,11 %
09.09.2016 05:50 14,8 C 14,4 C 12,8 C 87 % 1 lf 1016,7 hPa 0,0 l/m 0 min 0 min 0 W/m 6,3 km/h (2 Bft) 95,65 %
09.09.2016 05:52 14,7 C 14,4 C 12,8 C 88 % 1 lf 1016,7 hPa 0,0 l/m 0 min 0 min 0 W/m 6,3 km/h (2 Bft) 92,00 %
09.09.2016 05:54 14,7 C 14,4 C 12,8 C 88 % 1 lf 1016,7 hPa 0,0 l/m 0 min 0 min 0 W/m 8,4 km/h (2 Bft) 97,37 %
09.09.2016 05:56 14,7 C 14,4 C 12,8 C 88 % 1 lf 1016,7 hPa 0,0 l/m 0 min 0 min 0 W/m 8,4 km/h (2 Bft) 97,87 %
09.09.2016 05:58 14,7 C 14,4 C 13,3 C 88 % 1 lf 1016,7 hPa 0,0 l/m 0 min 0 min 0 W/m 10,5 km/h (2 Bft) 93,62 %
09.09.2016 06:00 14,7 C 14,4 C 13,3 C 88 % 1 lf 1016,7 hPa 0,0 l/m 0 min 0 min 0 W/m 10,5 km/h (2 Bft) 97,87 %
09.09.2016 06:02 14,7 C 14,4 C 13,3 C 88 % 1 lf 1016,7 hPa 0,0 l/m 0 min 0 min 0 W/m 8,4 km/h (2 Bft) 96,15 %
09.09.2016 06:04 14,7 C 14,4 C 13,3 C 88 % 1 lf 1016,7 hPa 0,0 l/m 0 min 0 min 0 W/m 10,5 km/h (2 Bft) 100,00 %
09.09.2016 06:06 14,7 C 14,4 C 13,3 C 88 % 1 lf 1016,7 hPa 0,0 l/m 0 min 0 min 0 W/m 8,4 km/h (2 Bft) 95,83 %
09.09.2016 06:08 14,7 C 14,4 C 13,3 C 88 % 1 lf 1016,7 hPa 0,0 l/m 0 min 0 min 0 W/m 10,5 km/h (2 Bft) 95,74 %
09.09.2016 06:10 14,7 C 15,0 C 13,3 C 89 % 1 lf 1016,8 hPa 0,0 l/m 0 min 0 min 0 W/m 8,4 km/h (2 Bft) 96,36 %
09.09.2016 06:12 14,7 C 15,0 C 13,9 C 89 % 1 lf 1016,8 hPa 0,0 l/m 0 min 0 min 0 W/m 8,4 km/h (2 Bft) 97,37 %
09.09.2016 06:14 14,7 C 15,0 C 13,9 C 89 % 1 lf 1016,8 hPa 0,0 l/m 0 min 0 min 0 W/m 8,4 km/h (2 Bft) 97,92 %
09.09.2016 06:16 14,7 C 15,0 C 13,9 C 89 % 1 lf 1016,8 hPa 0,0 l/m 0 min 0 min 0 W/m 8,4 km/h (2 Bft) 97,83 %
09.09.2016 06:18 14,7 C 15,0 C 13,9 C 89 % 1 lf 1016,9 hPa 0,0 l/m 0 min 0 min 0 W/m 8,4 km/h (2 Bft) 94,55 %
09.09.2016 06:20 14,7 C 15,0 C 13,9 C 89 % 1 lf 1016,9 hPa 0,0 l/m 0 min 0 min 0 W/m 6,3 km/h (2 Bft) 97,37 %
09.09.2016 06:22 14,7 C 15,0 C 13,9 C 89 % 1 lf 1017,0 hPa 0,0 l/m 0 min 0 min 0 W/m 8,4 km/h (2 Bft) 91,49 %
09.09.2016 06:24 14,8 C 15,0 C 13,9 C 89 % 1 lf 1017,0 hPa 0,0 l/m 0 min 0 min 0 W/m 10,5 km/h (2 Bft) 100,00 %
09.09.2016 06:26 14,8 C 15,0 C 13,9 C 89 % 1 lf 1017,0 hPa 0,0 l/m 0 min 0 min 0 W/m 10,5 km/h (2 Bft) 100,00 %
09.09.2016 06:28 14,8 C 15,0 C 13,9 C 89 % 1 lf 1017,0 hPa 0,0 l/m 0 min 0 min 0 W/m 8,4 km/h (2 Bft) 100,00 %
09.09.2016 06:30 14,8 C 15,0 C 13,9 C 89 % 1 lf 1017,0 hPa 0,0 l/m 0 min 0 min 0 W/m 12,6 km/h (3 Bft) 100,00 %
09.09.2016 06:32 14,8 C 15,0 C 13,9 C 89 % 1 lf 1017,0 hPa 0,0 l/m 0 min 0 min 0 W/m 8,4 km/h (2 Bft) 100,00 %
09.09.2016 06:34 14,8 C 15,0 C 13,9 C 89 % 1 lf 1017,0 hPa 0,0 l/m 0 min 0 min 0 W/m 6,3 km/h (2 Bft) 100,00 %
09.09.2016 06:36 14,9 C 15,0 C 13,9 C 89 % 1 lf 1017,1 hPa 0,0 l/m 0 min 0 min 0 W/m 6,3 km/h (2 Bft) 100,00 %
09.09.2016 06:38 14,9 C 15,0 C 13,9 C 89 % 1 lf 1017,1 hPa 0,0 l/m 0 min 0 min 0 W/m 6,3 km/h (2 Bft) 100,00 %
09.09.2016 06:40 14,9 C 15,0 C 13,9 C 89 % 1 lf 1017,1 hPa 0,0 l/m 0 min 0 min 0 W/m 4,2 km/h (1 Bft) 98,15 %
09.09.2016 06:42 14,9 C 15,0 C 13,9 C 90 % 1 lf 1017,1 hPa 0,0 l/m 0 min 0 min 0 W/m 8,4 km/h (2 Bft) 97,37 %
09.09.2016 06:44 14,9 C 15,0 C 13,9 C 90 % 1 lf 1017,1 hPa 0,0 l/m 0 min 0 min 0 W/m 6,3 km/h (2 Bft) 97,92 %
09.09.2016 06:46 14,9 C 15,6 C 13,9 C 89 % 1 lf 1017,1 hPa 0,0 l/m 0 min 0 min 0 W/m 6,3 km/h (2 Bft) 97,87 %
09.09.2016 06:48 14,9 C 15,6 C 13,9 C 90 % 1 lf 1017,2 hPa 0,0 l/m 0 min 0 min 7 W/m 8,4 km/h (2 Bft) 100,00 %
09.09.2016 06:50 15,0 C 15,6 C 13,9 C 90 % 1 lf 1017,1 hPa 0,0 l/m 0 min 0 min 7 W/m 8,4 km/h (2 Bft) 97,44 %
09.09.2016 06:52 15,0 C 15,6 C 13,9 C 90 % 1 lf 1017,1 hPa 0,0 l/m 0 min 0 min 8 W/m 8,4 km/h (2 Bft) 95,74 %
09.09.2016 06:54 15,0 C 15,6 C 13,9 C 90 % 1 lf 1017,2 hPa 0,0 l/m 0 min 0 min 9 W/m 8,4 km/h (2 Bft) 100,00 %
09.09.2016 06:56 15,0 C 15,6 C 13,9 C 90 % 1 lf 1017,2 hPa 0,0 l/m 0 min 0 min 77 W/m 10,5 km/h (2 Bft) 100,00 %
09.09.2016 06:58 15,1 C 15,6 C 14,4 C 90 % 1 lf 1017,3 hPa 0,0 l/m 0 min 0 min 173 W/m 8,4 km/h (2 Bft) 100,00 %
09.09.2016 07:00 15,1 C 15,6 C 14,4 C 90 % 1 lf 1017,3 hPa 0,0 l/m 0 min 0 min 59 W/m 10,5 km/h (2 Bft) 98,00 %
09.09.2016 07:02 15,1 C 15,6 C 14,4 C 89 % 1 lf 1017,4 hPa 0,0 l/m 0 min 0 min 9 W/m 8,4 km/h (2 Bft) 100,00 %
09.09.2016 07:04 15,1 C 15,6 C 14,4 C 89 % 1 lf 1017,4 hPa 0,0 l/m 0 min 0 min 9 W/m 8,4 km/h (2 Bft) 97,87 %
09.09.2016 07:06 15,1 C 15,6 C 14,4 C 89 % 1 lf 1017,4 hPa 0,0 l/m 0 min 0 min 9 W/m 8,4 km/h (2 Bft) 100,00 %
09.09.2016 07:08 15,1 C 15,6 C 14,4 C 89 % 1 lf 1017,4 hPa 0,0 l/m 0 min 0 min 10 W/m 10,5 km/h (2 Bft) 100,00 %
09.09.2016 07:10 15,1 C 15,6 C 14,4 C 89 % 1 lf 1017,4 hPa 0,0 l/m 0 min 0 min 11 W/m 8,4 km/h (2 Bft) 100,00 %
09.09.2016 07:12 15,2 C 15,6 C 14,4 C 89 % 1 lf 1017,4 hPa 0,0 l/m 0 min 0 min 11 W/m 8,4 km/h (2 Bft) 100,00 %
09.09.2016 07:14 15,2 C 15,6 C 14,4 C 89 % 1 lf 1017,4 hPa 0,0 l/m 0 min 0 min 11 W/m 8,4 km/h (2 Bft) 100,00 %
09.09.2016 07:16 15,2 C 15,6 C 14,4 C 89 % 1 lf 1017,4 hPa 0,0 l/m 0 min 0 min 12 W/m 10,5 km/h (2 Bft) 96,00 %
09.09.2016 07:18 15,2 C 15,6 C 14,4 C 89 % 1 lf 1017,4 hPa 0,0 l/m 0 min 0 min 12 W/m 10,5 km/h (2 Bft) 95,83 %
09.09.2016 07:20 15,2 C 15,6 C 14,4 C 89 % 1 lf 1017,4 hPa 0,0 l/m 0 min 0 min 12 W/m 8,4 km/h (2 Bft) 93,62 %
09.09.2016 07:22 15,2 C 15,6 C 14,4 C 89 % 1 lf 1017,4 hPa 0,0 l/m 0 min 0 min 12 W/m 6,3 km/h (2 Bft) 97,67 %
09.09.2016 07:24 15,2 C 15,6 C 14,4 C 89 % 1 lf 1017,4 hPa 0,0 l/m 0 min 0 min 15 W/m 10,5 km/h (2 Bft) 94,00 %
09.09.2016 07:26 15,2 C 15,6 C 14,4 C 89 % 1 lf 1017,5 hPa 0,0 l/m 0 min 0 min 16 W/m 10,5 km/h (2 Bft) 97,87 %
09.09.2016 07:28 15,3 C 15,6 C 14,4 C 89 % 1 lf 1017,4 hPa 0,0 l/m 0 min 0 min 17 W/m 12,6 km/h (3 Bft) 97,87 %
09.09.2016 07:30 15,3 C 15,6 C 14,4 C 89 % 1 lf 1017,5 hPa 0,0 l/m 0 min 0 min 18 W/m 12,6 km/h (3 Bft) 95,35 %
09.09.2016 07:32 15,3 C 15,6 C 14,4 C 89 % 1 lf 1017,4 hPa 0,0 l/m 0 min 0 min 18 W/m 8,4 km/h (2 Bft) 98,00 %
09.09.2016 07:34 15,3 C 15,6 C 14,4 C 89 % 1 lf 1017,5 hPa 0,0 l/m 0 min 0 min 18 W/m 8,4 km/h (2 Bft) 95,83 %
09.09.2016 07:36 15,3 C 15,6 C 14,4 C 89 % 1 lf 1017,5 hPa 0,0 l/m 0 min 0 min 21 W/m 10,5 km/h (2 Bft) 97,83 %
09.09.2016 07:38 15,3 C 15,6 C 14,4 C 89 % 0 lf 1017,4 hPa 0,0 l/m 0 min 0 min 24 W/m 12,6 km/h (3 Bft) 95,74 %
09.09.2016 07:40 15,3 C 15,6 C 14,4 C 89 % 0 lf 1017,5 hPa 0,0 l/m 0 min 0 min 26 W/m 10,5 km/h (2 Bft) 93,62 %
09.09.2016 07:42 15,3 C 15,6 C 14,4 C 89 % 0 lf 1017,5 hPa 0,0 l/m 0 min 0 min 30 W/m 10,5 km/h (2 Bft) 97,87 %
09.09.2016 07:44 15,4 C 15,6 C 14,4 C 89 % 0 lf 1017,4 hPa 0,0 l/m 0 min 0 min 34 W/m 8,4 km/h (2 Bft) 97,67 %
09.09.2016 07:46 15,4 C 15,6 C 14,4 C 89 % 0 lf 1017,4 hPa 0,0 l/m 0 min 0 min 38 W/m 10,5 km/h (2 Bft) 92,00 %
09.09.2016 07:48 15,4 C 16,1 C 15,0 C 89 % 0 lf 1017,4 hPa 0,0 l/m 0 min 0 min 40 W/m 8,4 km/h (2 Bft) 93,62 %
09.09.2016 07:50 15,4 C 16,1 C 15,0 C 89 % 0 lf 1017,6 hPa 0,0 l/m 0 min 0 min 40 W/m 10,5 km/h (2 Bft) 91,49 %
09.09.2016 07:52 15,4 C 16,1 C 15,0 C 88 % 0 lf 1017,6 hPa 0,0 l/m 0 min 0 min 40 W/m 10,5 km/h (2 Bft) 93,02 %
09.09.2016 07:54 15,4 C 16,1 C 15,0 C 88 % 0 lf 1017,6 hPa 0,0 l/m 0 min 0 min 42 W/m 10,5 km/h (2 Bft) 94,00 %
09.09.2016 07:56 15,4 C 16,1 C 15,0 C 88 % 0 lf 1017,6 hPa 0,0 l/m 0 min 0 min 44 W/m 10,5 km/h (2 Bft) 91,67 %
09.09.2016 07:58 15,5 C 16,1 C 15,0 C 88 % 0 lf 1017,6 hPa 0,0 l/m 0 min 0 min 44 W/m 14,6 km/h (3 Bft) 93,62 %
09.09.2016 08:00 15,5 C 16,1 C 15,0 C 88 % 0 lf 1017,6 hPa 0,0 l/m 0 min 0 min 44 W/m 10,5 km/h (2 Bft) 93,02 %
09.09.2016 08:02 15,5 C 16,1 C 15,0 C 88 % 0 lf 1017,6 hPa 0,0 l/m 0 min 0 min 44 W/m 8,4 km/h (2 Bft) 93,48 %
09.09.2016 08:04 15,5 C 16,1 C 15,0 C 88 % 0 lf 1017,7 hPa 0,0 l/m 0 min 0 min 44 W/m 10,5 km/h (2 Bft) 98,00 %
09.09.2016 08:06 15,5 C 16,1 C 15,0 C 88 % 0 lf 1017,7 hPa 0,0 l/m 0 min 0 min 48 W/m 10,5 km/h (2 Bft) 95,83 %
09.09.2016 08:08 15,6 C 16,1 C 15,0 C 88 % 0 lf 1017,6 hPa 0,0 l/m 0 min 0 min 51 W/m 10,5 km/h (2 Bft) 93,62 %
09.09.2016 08:10 15,6 C 16,1 C 15,0 C 88 % 0 lf 1017,7 hPa 0,0 l/m 0 min 0 min 56 W/m 8,4 km/h (2 Bft) 93,02 %
09.09.2016 08:12 15,6 C 16,1 C 15,0 C 88 % 0 lf 1017,6 hPa 0,0 l/m 0 min 0 min 60 W/m 10,5 km/h (2 Bft) 95,92 %
09.09.2016 08:14 15,6 C 16,1 C 15,0 C 88 % 0 lf 1017,6 hPa 0,0 l/m 0 min 0 min 62 W/m 6,3 km/h (2 Bft) 95,74 %
09.09.2016 08:16 15,6 C 16,7 C 15,0 C 88 % 0 lf 1017,7 hPa 0,0 l/m 0 min 0 min 65 W/m 8,4 km/h (2 Bft) 93,75 %
09.09.2016 08:18 15,6 C 16,1 C 15,0 C 88 % 0 lf 1017,7 hPa 0,0 l/m 0 min 0 min 69 W/m 12,6 km/h (3 Bft) 95,74 %
09.09.2016 08:20 15,6 C 16,7 C 15,0 C 88 % 0 lf 1017,8 hPa 0,0 l/m 0 min 0 min 69 W/m 8,4 km/h (2 Bft) 97,67 %
09.09.2016 08:22 15,7 C 16,7 C 15,6 C 88 % 0 lf 1017,8 hPa 0,0 l/m 0 min 0 min 69 W/m 8,4 km/h (2 Bft) 98,00 %
09.09.2016 08:24 15,7 C 16,1 C 15,6 C 88 % 0 lf 1017,8 hPa 0,0 l/m 0 min 0 min 70 W/m 10,5 km/h (2 Bft) 97,87 %
09.09.2016 08:26 15,7 C 16,1 C 15,6 C 88 % 0 lf 1017,8 hPa 0,0 l/m 0 min 0 min 74 W/m 8,4 km/h (2 Bft) 93,62 %
09.09.2016 08:28 15,7 C 16,7 C 15,6 C 88 % 0 lf 1017,9 hPa 0,0 l/m 0 min 0 min 81 W/m 12,6 km/h (3 Bft) 95,35 %
09.09.2016 08:30 15,7 C 16,7 C 15,6 C 88 % 0 lf 1018,0 hPa 0,0 l/m 0 min 0 min 82 W/m 14,6 km/h (3 Bft) 98,00 %
09.09.2016 08:32 15,7 C 16,7 C 15,6 C 88 % 0 lf 1017,9 hPa 0,0 l/m 0 min 0 min 78 W/m 12,6 km/h (3 Bft) 97,92 %
09.09.2016 08:34 15,8 C 16,7 C 15,6 C 88 % 0 lf 1017,9 hPa 0,0 l/m 0 min 0 min 79 W/m 12,6 km/h (3 Bft) 95,74 %
09.09.2016 08:36 15,8 C 16,7 C 15,6 C 88 % 0 lf 1017,9 hPa 0,0 l/m 0 min 0 min 79 W/m 10,5 km/h (2 Bft) 97,62 %
09.09.2016 08:38 15,8 C 16,7 C 15,6 C 88 % 0 lf 1018,0 hPa 0,0 l/m 0 min 0 min 80 W/m 10,5 km/h (2 Bft) 95,74 %
09.09.2016 08:40 15,8 C 16,7 C 15,6 C 88 % 0 lf 1017,9 hPa 0,0 l/m 0 min 0 min 83 W/m 8,4 km/h (2 Bft) 98,00 %
09.09.2016 08:42 15,8 C 16,7 C 15,6 C 88 % 0 lf 1018,0 hPa 0,0 l/m 0 min 0 min 87 W/m 14,6 km/h (3 Bft) 97,92 %
09.09.2016 08:44 15,9 C 16,7 C 15,6 C 88 % 0 lf 1018,0 hPa 0,0 l/m 0 min 0 min 90 W/m 10,5 km/h (2 Bft) 97,87 %
09.09.2016 08:46 15,9 C 16,7 C 15,6 C 88 % 0 lf 1018,0 hPa 0,0 l/m 0 min 0 min 91 W/m 12,6 km/h (3 Bft) 95,35 %
09.09.2016 08:48 15,9 C 16,7 C 15,6 C 88 % 0 lf 1018,0 hPa 0,0 l/m 0 min 0 min 94 W/m 10,5 km/h (2 Bft) 95,92 %
09.09.2016 08:50 15,9 C 16,7 C 15,6 C 88 % 0 lf 1017,9 hPa 0,0 l/m 0 min 0 min 98 W/m 10,5 km/h (2 Bft) 95,83 %
09.09.2016 08:52 15,9 C 16,7 C 16,1 C 88 % 0 lf 1018,0 hPa 0,0 l/m 0 min 0 min 103 W/m 8,4 km/h (2 Bft) 93,62 %
09.09.2016 08:54 15,9 C 16,7 C 16,1 C 88 % 0 lf 1018,0 hPa 0,0 l/m 0 min 0 min 104 W/m 12,6 km/h (3 Bft) 97,67 %
09.09.2016 08:56 16,0 C 17,2 C 16,1 C 88 % 0 lf 1018,0 hPa 0,0 l/m 0 min 0 min 104 W/m 8,4 km/h (2 Bft) 98,00 %
09.09.2016 08:58 16,0 C 17,2 C 16,1 C 88 % 0 lf 1018,0 hPa 0,0 l/m 0 min 0 min 107 W/m 10,5 km/h (2 Bft) 95,74 %
09.09.2016 09:00 16,0 C 17,2 C 16,1 C 88 % 0 lf 1018,0 hPa 0,0 l/m 0 min 0 min 114 W/m 8,4 km/h (2 Bft) 97,87 %
09.09.2016 09:02 16,1 C 17,2 C 16,1 C 88 % 0 lf 1018,0 hPa 0,0 l/m 0 min 0 min 116 W/m 10,5 km/h (2 Bft) 95,35 %
09.09.2016 09:04 16,1 C 17,2 C 16,7 C 88 % 0 lf 1018,0 hPa 0,0 l/m 0 min 0 min 111 W/m 12,6 km/h (3 Bft) 98,00 %
09.09.2016 09:06 16,1 C 17,2 C 16,7 C 88 % 0 lf 1018,0 hPa 0,0 l/m 0 min 0 min 106 W/m 10,5 km/h (2 Bft) 93,75 %
09.09.2016 09:08 16,2 C 17,2 C 16,7 C 88 % 0 lf 1018,0 hPa 0,0 l/m 0 min 0 min 105 W/m 8,4 km/h (2 Bft) 97,87 %
09.09.2016 09:10 16,2 C 17,2 C 16,7 C 88 % 0 lf 1018,1 hPa 0,0 l/m 0 min 0 min 108 W/m 8,4 km/h (2 Bft) 95,35 %
09.09.2016 09:12 16,2 C 17,2 C 16,7 C 87 % 0 lf 1018,1 hPa 0,0 l/m 0 min 0 min 117 W/m 8,4 km/h (2 Bft) 95,92 %
09.09.2016 09:14 16,2 C 17,2 C 16,7 C 87 % 0 lf 1018,0 hPa 0,0 l/m 0 min 0 min 131 W/m 4,2 km/h (1 Bft) 95,83 %
09.09.2016 09:16 16,3 C 17,8 C 16,7 C 87 % 0 lf 1018,0 hPa 0,0 l/m 0 min 0 min 142 W/m 10,5 km/h (2 Bft) 95,74 %
09.09.2016 09:18 16,3 C 17,8 C 16,7 C 87 % 0 lf 1018,1 hPa 0,0 l/m 0 min 0 min 143 W/m 8,4 km/h (2 Bft) 97,67 %
09.09.2016 09:20 16,3 C 17,8 C 16,7 C 87 % 0 lf 1018,1 hPa 0,0 l/m 0 min 0 min 144 W/m 10,5 km/h (2 Bft) 96,00 %
09.09.2016 09:22 16,3 C 17,8 C 16,7 C 87 % 0 lf 1018,1 hPa 0,0 l/m 0 min 0 min 148 W/m 8,4 km/h (2 Bft) 95,74 %
09.09.2016 09:24 16,3 C 17,8 C 16,7 C 87 % 0 lf 1018,1 hPa 0,0 l/m 0 min 0 min 149 W/m 10,5 km/h (2 Bft) 93,62 %
09.09.2016 09:26 16,4 C 17,8 C 17,2 C 87 % 0 lf 1018,1 hPa 0,0 l/m 0 min 0 min 152 W/m 12,6 km/h (3 Bft) 100,00 %
09.09.2016 09:28 16,4 C 17,8 C 17,2 C 87 % 0 lf 1018,1 hPa 0,0 l/m 0 min 0 min 157 W/m 8,4 km/h (2 Bft) 94,00 %
09.09.2016 09:30 16,5 C 18,3 C 17,2 C 87 % 0 lf 1018,1 hPa 0,0 l/m 0 min 0 min 158 W/m 6,3 km/h (2 Bft) 95,83 %
09.09.2016 09:32 16,5 C 18,3 C 17,2 C 87 % 0 lf 1018,1 hPa 0,0 l/m 0 min 0 min 160 W/m 8,4 km/h (2 Bft) 95,74 %
09.09.2016 09:34 16,5 C 18,3 C 17,8 C 87 % 0 lf 1018,1 hPa 0,0 l/m 0 min 0 min 169 W/m 10,5 km/h (2 Bft) 97,67 %
09.09.2016 09:36 16,6 C 18,3 C 17,8 C 87 % 0 lf 1018,2 hPa 0,0 l/m 0 min 0 min 177 W/m 8,4 km/h (2 Bft) 100,00 %
09.09.2016 09:38 16,6 C 18,9 C 17,8 C 87 % 0 lf 1018,2 hPa 0,0 l/m 0 min 0 min 178 W/m 8,4 km/h (2 Bft) 100,00 %
09.09.2016 09:40 16,7 C 18,9 C 17,8 C 87 % 0 lf 1018,2 hPa 0,0 l/m 0 min 0 min 181 W/m 10,5 km/h (2 Bft) 93,62 %
09.09.2016 09:42 16,7 C 18,9 C 17,8 C 87 % 0 lf 1018,2 hPa 0,0 l/m 0 min 0 min 180 W/m 6,3 km/h (2 Bft) 95,35 %
09.09.2016 09:44 16,7 C 18,9 C 17,8 C 87 % 0 lf 1018,2 hPa 0,0 l/m 0 min 0 min 180 W/m 12,6 km/h (3 Bft) 96,00 %
09.09.2016 09:46 16,8 C 18,3 C 17,8 C 87 % 0 lf 1018,3 hPa 0,0 l/m 0 min 0 min 178 W/m 10,5 km/h (2 Bft) 100,00 %
09.09.2016 09:48 16,8 C 18,9 C 17,8 C 87 % 0 lf 1018,3 hPa 0,0 l/m 0 min 0 min 176 W/m 12,6 km/h (3 Bft) 97,87 %
09.09.2016 09:50 16,9 C 18,9 C 17,8 C 87 % 0 lf 1018,3 hPa 0,0 l/m 0 min 0 min 178 W/m 10,5 km/h (2 Bft) 97,67 %
09.09.2016 09:52 16,9 C 18,9 C 17,8 C 87 % 0 lf 1018,3 hPa 0,0 l/m 0 min 0 min 181 W/m 6,3 km/h (2 Bft) 96,00 %
09.09.2016 09:54 17,0 C 18,9 C 18,3 C 87 % 0 lf 1018,4 hPa 0,0 l/m 0 min 0 min 183 W/m 6,3 km/h (2 Bft) 97,87 %
09.09.2016 09:56 17,1 C 19,4 C 18,3 C 87 % 0 lf 1018,5 hPa 0,0 l/m 0 min 0 min 188 W/m 8,4 km/h (2 Bft) 97,92 %
09.09.2016 09:58 17,1 C 19,4 C 18,3 C 87 % 0 lf 1018,3 hPa 0,0 l/m 0 min 0 min 193 W/m 10,5 km/h (2 Bft) 97,83 %
09.09.2016 10:00 17,1 C 19,4 C 18,3 C 87 % 0 lf 1018,4 hPa 0,0 l/m 0 min 0 min 211 W/m 8,4 km/h (2 Bft) 95,35 %
09.09.2016 10:02 17,2 C 18,9 C 18,3 C 86 % 0 lf 1018,5 hPa 0,0 l/m 2 min 0 min 327 W/m 8,4 km/h (2 Bft) 96,00 %
09.09.2016 10:04 17,2 C 18,9 C 18,3 C 86 % 0 lf 1018,4 hPa 0,0 l/m 2 min 0 min 342 W/m 8,4 km/h (2 Bft) 97,92 %
09.09.2016 10:06 17,2 C 18,9 C 18,3 C 86 % 0 lf 1018,4 hPa 0,0 l/m 2 min 0 min 346 W/m 6,3 km/h (2 Bft) 93,62 %
09.09.2016 10:08 17,3 C 18,9 C 18,3 C 86 % 0 lf 1018,5 hPa 0,0 l/m 2 min 0 min 349 W/m 8,4 km/h (2 Bft) 95,35 %
09.09.2016 10:10 17,3 C 19,4 C 18,9 C 86 % 0 lf 1018,5 hPa 0,0 l/m 2 min 0 min 351 W/m 4,2 km/h (1 Bft) 93,88 %
09.09.2016 10:12 17,4 C 19,4 C 18,9 C 86 % 0 lf 1018,5 hPa 0,0 l/m 2 min 0 min 358 W/m 8,4 km/h (2 Bft) 95,83 %
09.09.2016 10:14 17,4 C 19,4 C 18,9 C 86 % 0 lf 1018,6 hPa 0,0 l/m 2 min 0 min 365 W/m 6,3 km/h (2 Bft) 93,62 %
09.09.2016 10:16 17,4 C 19,4 C 18,9 C 86 % 0 lf 1018,5 hPa 0,0 l/m 2 min 0 min 377 W/m 12,6 km/h (3 Bft) 95,35 %
09.09.2016 10:18 17,5 C 19,4 C 18,9 C 86 % 0 lf 1018,5 hPa 0,0 l/m 2 min 0 min 381 W/m 10,5 km/h (2 Bft) 96,00 %
09.09.2016 10:20 17,6 C 19,4 C 18,9 C 85 % 0 lf 1018,6 hPa 0,0 l/m 2 min 0 min 375 W/m 12,6 km/h (3 Bft) 93,62 %
09.09.2016 10:22 17,6 C 19,4 C 18,9 C 85 % 0 lf 1018,6 hPa 0,0 l/m 2 min 0 min 375 W/m 12,6 km/h (3 Bft) 95,74 %
09.09.2016 10:24 17,7 C 19,4 C 18,9 C 85 % 0 lf 1018,6 hPa 0,0 l/m 2 min 0 min 380 W/m 12,6 km/h (3 Bft) 97,67 %
09.09.2016 10:26 17,7 C 19,4 C 18,9 C 84 % 0 lf 1018,6 hPa 0,0 l/m 2 min 0 min 385 W/m 14,6 km/h (3 Bft) 96,00 %
09.09.2016 10:28 17,7 C 19,4 C 18,9 C 84 % 0 lf 1018,6 hPa 0,0 l/m 2 min 0 min 378 W/m 12,6 km/h (3 Bft) 97,92 %
09.09.2016 10:30 17,7 C 18,9 C 18,9 C 84 % 0 lf 1018,6 hPa 0,0 l/m 2 min 0 min 375 W/m 10,5 km/h (2 Bft) 95,74 %
09.09.2016 10:32 17,7 C 19,4 C 18,9 C 84 % 0 lf 1018,5 hPa 0,0 l/m 2 min 0 min 381 W/m 12,6 km/h (3 Bft) 97,67 %
09.09.2016 10:34 17,7 C 19,4 C 18,9 C 84 % 0 lf 1018,5 hPa 0,0 l/m 2 min 0 min 373 W/m 14,6 km/h (3 Bft) 95,92 %
09.09.2016 10:36 17,8 C 19,4 C 18,9 C 84 % 0 lf 1018,6 hPa 0,0 l/m 2 min 0 min 381 W/m 12,6 km/h (3 Bft) 97,92 %
09.09.2016 10:38 17,8 C 19,4 C 18,9 C 84 % 0 lf 1018,6 hPa 0,0 l/m 2 min 0 min 391 W/m 10,5 km/h (2 Bft) 97,87 %
09.09.2016 10:40 17,8 C 19,4 C 19,4 C 84 % 0 lf 1018,6 hPa 0,0 l/m 2 min 0 min 396 W/m 10,5 km/h (2 Bft) 97,87 %
09.09.2016 10:42 17,8 C 20,0 C 19,4 C 84 % 0 lf 1018,6 hPa 0,0 l/m 2 min 0 min 387 W/m 6,3 km/h (2 Bft) 97,67 %
09.09.2016 10:44 17,9 C 20,0 C 19,4 C 84 % 0 lf 1018,6 hPa 0,0 l/m 2 min 0 min 394 W/m 8,4 km/h (2 Bft) 95,92 %
09.09.2016 10:46 17,9 C 20,6 C 19,4 C 84 % 0 lf 1018,6 hPa 0,0 l/m 2 min 0 min 397 W/m 10,5 km/h (2 Bft) 100,00 %
09.09.2016 10:48 18,0 C 20,0 C 19,4 C 84 % 0 lf 1018,6 hPa 0,0 l/m 2 min 0 min 392 W/m 14,6 km/h (3 Bft) 93,62 %
09.09.2016 10:50 18,0 C 20,0 C 19,4 C 83 % 0 lf 1018,7 hPa 0,0 l/m 2 min 0 min 373 W/m 10,5 km/h (2 Bft) 97,67 %
09.09.2016 10:52 18,1 C 20,0 C 19,4 C 83 % 0 lf 1018,7 hPa 0,0 l/m 2 min 0 min 370 W/m 10,5 km/h (2 Bft) 96,00 %
09.09.2016 10:54 18,1 C 20,0 C 19,4 C 83 % 0 lf 1018,6 hPa 0,0 l/m 2 min 0 min 365 W/m 10,5 km/h (2 Bft) 95,83 %
09.09.2016 10:56 18,1 C 20,0 C 19,4 C 83 % 0 lf 1018,6 hPa 0,0 l/m 2 min 0 min 372 W/m 8,4 km/h (2 Bft) 95,65 %
09.09.2016 10:58 18,1 C 20,0 C 19,4 C 83 % 0 lf 1018,6 hPa 0,0 l/m 2 min 0 min 371 W/m 12,6 km/h (3 Bft) 97,87 %
09.09.2016 11:00 18,1 C 20,0 C 18,9 C 83 % 0 lf 1018,6 hPa 0,0 l/m 2 min 0 min 378 W/m 16,7 km/h (3 Bft) 97,67 %
09.09.2016 11:02 18,2 C 21,1 C 19,4 C 82 % 0 lf 1018,6 hPa 0,0 l/m 2 min 0 min 413 W/m 8,4 km/h (2 Bft) 94,00 %
09.09.2016 11:04 18,2 C 22,8 C 20,6 C 83 % 0 lf 1018,6 hPa 0,0 l/m 2 min 0 min 472 W/m 12,6 km/h (3 Bft) 97,92 %
09.09.2016 11:06 18,2 C 22,8 C 21,1 C 83 % 0 lf 1018,7 hPa 0,0 l/m 2 min 0 min 537 W/m 8,4 km/h (2 Bft) 93,62 %
09.09.2016 11:08 18,3 C 23,9 C 22,2 C 83 % 0 lf 1018,6 hPa 0,0 l/m 2 min 0 min 559 W/m 12,6 km/h (3 Bft) 97,62 %
09.09.2016 11:10 18,4 C 24,4 C 22,2 C 83 % 0 lf 1018,6 hPa 0,0 l/m 2 min 0 min 504 W/m 14,6 km/h (3 Bft) 98,00 %
09.09.2016 11:12 18,5 C 24,4 C 22,2 C 82 % 0 lf 1018,6 hPa 0,0 l/m 2 min 0 min 568 W/m 10,5 km/h (2 Bft) 95,83 %
09.09.2016 11:14 18,6 C 23,9 C 22,2 C 82 % 0 lf 1018,6 hPa 0,0 l/m 2 min 0 min 526 W/m 10,5 km/h (2 Bft) 97,87 %
09.09.2016 11:16 18,7 C 23,9 C 22,2 C 82 % 0 lf 1018,6 hPa 0,0 l/m 2 min 0 min 523 W/m 14,6 km/h (3 Bft) 100,00 %
09.09.2016 11:18 18,7 C 23,9 C 22,8 C 82 % 0 lf 1018,6 hPa 0,0 l/m 2 min 0 min 554 W/m 10,5 km/h (2 Bft) 95,71 %
09.09.2016 11:20 18,8 C 22,2 C 22,8 C 81 % 0 lf 1018,6 hPa 0,0 l/m 2 min 0 min 512 W/m 14,6 km/h (3 Bft) 95,74 %
09.09.2016 11:22 18,8 C 21,1 C 22,8 C 81 % 0 lf 1018,6 hPa 0,0 l/m 2 min 0 min 354 W/m 10,5 km/h (2 Bft) 97,87 %
09.09.2016 11:24 18,9 C 20,6 C 22,2 C 81 % 0 lf 1018,6 hPa 0,0 l/m 2 min 0 min 381 W/m 14,6 km/h (3 Bft) 95,35 %
09.09.2016 11:26 18,9 C 21,7 C 22,8 C 80 % 0 lf 1018,6 hPa 0,0 l/m 2 min 0 min 468 W/m 10,5 km/h (2 Bft) 98,00 %
09.09.2016 11:28 18,9 C 21,7 C 22,2 C 80 % 0 lf 1018,5 hPa 0,0 l/m 2 min 0 min 400 W/m 14,6 km/h (3 Bft) 97,92 %
09.09.2016 11:30 19,0 C 21,1 C 22,2 C 80 % 0 lf 1018,3 hPa 0,0 l/m 2 min 0 min 406 W/m 10,5 km/h (2 Bft) 97,83 %
09.09.2016 11:32 19,0 C 21,7 C 22,2 C 80 % 0 lf 1018,5 hPa 0,0 l/m 2 min 0 min 425 W/m 14,6 km/h (3 Bft) 95,35 %
09.09.2016 11:34 19,0 C 22,2 C 22,8 C 80 % 0 lf 1018,4 hPa 0,0 l/m 2 min 0 min 499 W/m 12,6 km/h (3 Bft) 96,00 %
09.09.2016 11:36 19,1 C 23,9 C 23,3 C 80 % 0 lf 1018,5 hPa 0,0 l/m 2 min 0 min 478 W/m 8,4 km/h (2 Bft) 97,92 %
09.09.2016 11:38 19,2 C 23,3 C 23,3 C 80 % 0 lf 1018,4 hPa 0,0 l/m 2 min 0 min 450 W/m 12,6 km/h (3 Bft) 95,74 %
09.09.2016 11:40 19,2 C 22,8 C 22,8 C 80 % 0 lf 1018,4 hPa 0,0 l/m 2 min 0 min 405 W/m 8,4 km/h (2 Bft) 95,35 %
09.09.2016 11:42 19,2 C 21,7 C 22,8 C 79 % 0 lf 1018,6 hPa 0,0 l/m 2 min 0 min 368 W/m 8,4 km/h (2 Bft) 96,00 %
09.09.2016 11:44 19,2 C 22,2 C 22,2 C 79 % 0 lf 1018,5 hPa 0,0 l/m 2 min 0 min 386 W/m 10,5 km/h (2 Bft) 97,87 %
09.09.2016 11:46 19,3 C 22,8 C 22,2 C 79 % 0 lf 1018,5 hPa 0,0 l/m 2 min 0 min 448 W/m 10,5 km/h (2 Bft) 100,00 %
09.09.2016 11:48 19,3 C 23,3 C 22,2 C 80 % 0 lf 1018,5 hPa 0,0 l/m 2 min 0 min 371 W/m 14,6 km/h (3 Bft) 100,00 %
09.09.2016 11:50 19,4 C 22,8 C 21,7 C 79 % 0 lf 1018,5 hPa 0,0 l/m 2 min 0 min 340 W/m 8,4 km/h (2 Bft) 100,00 %
09.09.2016 11:52 19,4 C 22,8 C 21,7 C 79 % 0 lf 1018,5 hPa 0,0 l/m 2 min 0 min 342 W/m 8,4 km/h (2 Bft) 97,92 %
09.09.2016 11:54 19,5 C 22,8 C 21,7 C 79 % 0 lf 1018,5 hPa 0,0 l/m 2 min 0 min 331 W/m 12,6 km/h (3 Bft) 100,00 %
09.09.2016 11:56 19,5 C 23,3 C 21,7 C 79 % 0 lf 1018,4 hPa 0,0 l/m 2 min 0 min 347 W/m 12,6 km/h (3 Bft) 90,70 %
09.09.2016 11:58 19,6 C 25,0 C 22,8 C 79 % 0 lf 1018,4 hPa 0,0 l/m 2 min 0 min 434 W/m 14,6 km/h (3 Bft) 95,74 %
09.09.2016 12:00 19,7 C 26,1 C 23,9 C 79 % 0 lf 1018,5 hPa 0,0 l/m 2 min 0 min 807 W/m 12,6 km/h (3 Bft) 94,00 %
09.09.2016 12:02 19,7 C 26,7 C 23,3 C 79 % 0 lf 1018,4 hPa 0,0 l/m 2 min 0 min 626 W/m 8,4 km/h (2 Bft) 93,62 %
09.09.2016 12:04 19,8 C 26,7 C 22,8 C 79 % 0 lf 1018,4 hPa 0,0 l/m 2 min 0 min 483 W/m 8,4 km/h (2 Bft) 93,75 %
09.09.2016 12:06 19,9 C 25,0 C 22,2 C 78 % 0 lf 1018,5 hPa 0,0 l/m 2 min 0 min 320 W/m 10,5 km/h (2 Bft) 95,65 %
09.09.2016 12:08 19,9 C 24,4 C 21,7 C 77 % 0 lf 1018,5 hPa 0,0 l/m 0 min 0 min 292 W/m 6,3 km/h (2 Bft) 97,73 %
09.09.2016 12:10 19,9 C 23,3 C 21,1 C 77 % 0 lf 1018,5 hPa 0,0 l/m 0 min 0 min 288 W/m 14,6 km/h (3 Bft) 93,62 %
09.09.2016 12:12 19,9 C 23,9 C 21,1 C 77 % 0 lf 1018,5 hPa 0,0 l/m 0 min 0 min 296 W/m 10,5 km/h (2 Bft) 92,00 %
09.09.2016 12:14 19,9 C 23,9 C 21,1 C 77 % 0 lf 1018,4 hPa 0,0 l/m 0 min 0 min 307 W/m 14,6 km/h (3 Bft) 98,11 %
09.09.2016 12:16 19,9 C 22,8 C 20,6 C 76 % 0 lf 1018,4 hPa 0,0 l/m 0 min 0 min 280 W/m 8,4 km/h (2 Bft) 95,65 %
09.09.2016 12:18 19,9 C 22,2 C 20,6 C 76 % 0 lf 1018,4 hPa 0,0 l/m 0 min 0 min 287 W/m 8,4 km/h (2 Bft) 97,37 %
09.09.2016 12:20 19,9 C 22,2 C 20,6 C 76 % 0 lf 1018,5 hPa 0,0 l/m 0 min 0 min 295 W/m 8,4 km/h (2 Bft) 96,00 %
09.09.2016 12:22 19,9 C 22,8 C 20,6 C 77 % 0 lf 1018,4 hPa 0,0 l/m 0 min 0 min 300 W/m 12,6 km/h (3 Bft) 95,74 %
09.09.2016 12:24 19,9 C 23,3 C 20,6 C 77 % 0 lf 1018,4 hPa 0,0 l/m 0 min 0 min 298 W/m 10,5 km/h (2 Bft) 95,45 %
09.09.2016 12:26 19,9 C 22,8 C 20,6 C 76 % 0 lf 1018,4 hPa 0,0 l/m 0 min 0 min 296 W/m 6,3 km/h (2 Bft) 96,00 %
09.09.2016 12:28 19,9 C 22,2 C 20,0 C 76 % 0 lf 1018,4 hPa 0,0 l/m 0 min 0 min 291 W/m 10,5 km/h (2 Bft) 95,74 %
09.09.2016 12:30 19,8 C 22,2 C 20,0 C 77 % 0 lf 1018,2 hPa 0,0 l/m 0 min 0 min 293 W/m 10,5 km/h (2 Bft) 93,02 %
09.09.2016 12:32 19,8 C 22,8 C 20,6 C 77 % 0 lf 1018,2 hPa 0,0 l/m 0 min 0 min 290 W/m 8,4 km/h (2 Bft) 94,00 %
09.09.2016 12:34 19,8 C 22,8 C 20,6 C 77 % 0 lf 1018,1 hPa 0,0 l/m 0 min 0 min 319 W/m 8,4 km/h (2 Bft) 95,74 %
09.09.2016 12:36 19,8 C 23,3 C 20,6 C 77 % 0 lf 1018,1 hPa 0,0 l/m 2 min 0 min 334 W/m 8,4 km/h (2 Bft) 90,91 %
09.09.2016 12:38 19,8 C 23,9 C 20,6 C 77 % 0 lf 1018,1 hPa 0,0 l/m 2 min 0 min 370 W/m 6,3 km/h (2 Bft) 96,00 %
09.09.2016 12:40 19,9 C 23,9 C 21,7 C 77 % 0 lf 1018,1 hPa 0,0 l/m 2 min 0 min 476 W/m 6,3 km/h (2 Bft) 93,62 %
09.09.2016 12:42 19,9 C 27,8 C 22,2 C 77 % 0 lf 1018,0 hPa 0,0 l/m 2 min 0 min 656 W/m 6,3 km/h (2 Bft) 97,67 %
09.09.2016 12:44 20,0 C 26,7 C 22,8 C 78 % 0 lf 1018,0 hPa 0,0 l/m 2 min 0 min 921 W/m 12,6 km/h (3 Bft) 94,00 %
09.09.2016 12:46 20,1 C 26,7 C 23,3 C 77 % 0 lf 1018,0 hPa 0,0 l/m 2 min 0 min 890 W/m 16,7 km/h (3 Bft) 92,45 %
09.09.2016 12:48 20,2 C 27,2 C 23,3 C 77 % 0 lf 1018,0 hPa 0,0 l/m 2 min 0 min 862 W/m 16,7 km/h (3 Bft) 94,74 %
09.09.2016 12:50 20,4 C 30,0 C 23,3 C 78 % 0 lf 1018,0 hPa 0,0 l/m 2 min 0 min 834 W/m 12,6 km/h (3 Bft) 96,00 %
09.09.2016 12:52 20,6 C 27,8 C 23,9 C 77 % 0 lf 1018,0 hPa 0,0 l/m 2 min 0 min 826 W/m 12,6 km/h (3 Bft) 97,83 %
09.09.2016 12:54 20,7 C 25,6 C 23,3 C 75 % 0 lf 1018,0 hPa 0,0 l/m 2 min 0 min 812 W/m 12,6 km/h (3 Bft) 95,74 %
09.09.2016 12:56 20,7 C 25,0 C 23,3 C 74 % 0 lf 1018,0 hPa 0,0 l/m 2 min 0 min 794 W/m 14,6 km/h (3 Bft) 88,64 %
09.09.2016 12:58 20,8 C 26,7 C 23,3 C 74 % 0 lf 1018,0 hPa 0,0 l/m 2 min 0 min 996 W/m 16,7 km/h (3 Bft) 98,00 %
09.09.2016 13:00 20,9 C 27,8 C 23,3 C 75 % 0 lf 1018,0 hPa 0,0 l/m 2 min 0 min 1508 W/m 12,6 km/h (3 Bft) 97,87 %
09.09.2016 13:02 21,0 C 27,2 C 22,8 C 74 % 0 lf 1018,0 hPa 0,0 l/m 2 min 0 min 1509 W/m 10,5 km/h (2 Bft) 95,45 %
09.09.2016 13:04 21,1 C 28,9 C 22,8 C 74 % 0 lf 1018,0 hPa 0,0 l/m 2 min 0 min 1512 W/m 12,6 km/h (3 Bft) 91,49 %
09.09.2016 13:06 21,2 C 26,1 C 22,8 C 73 % 0 lf 1018,1 hPa 0,0 l/m 2 min 0 min 1502 W/m 16,7 km/h (3 Bft) 97,83 %
09.09.2016 13:08 21,2 C 26,7 C 22,8 C 73 % 0 lf 1018,0 hPa 0,0 l/m 2 min 0 min 1486 W/m 14,6 km/h (3 Bft) 98,00 %
09.09.2016 13:10 21,3 C 25,6 C 22,8 C 72 % 0 lf 1018,0 hPa 0,0 l/m 2 min 0 min 1474 W/m 14,6 km/h (3 Bft) 95,74 %
09.09.2016 13:12 21,3 C 26,1 C 22,2 C 72 % 0 lf 1018,1 hPa 0,0 l/m 2 min 0 min 1455 W/m 12,6 km/h (3 Bft) 97,73 %
09.09.2016 13:14 21,3 C 27,8 C 22,2 C 73 % 0 lf 1018,0 hPa 0,0 l/m 2 min 0 min 1446 W/m 14,6 km/h (3 Bft) 98,00 %
09.09.2016 13:16 21,4 C 29,4 C 21,7 C 73 % 0 lf 1018,1 hPa 0,0 l/m 2 min 0 min 1437 W/m 10,5 km/h (2 Bft) 97,83 %
09.09.2016 13:18 21,5 C 29,4 C 21,7 C 73 % 0 lf 1018,0 hPa 0,0 l/m 2 min 0 min 1422 W/m 10,5 km/h (2 Bft) 97,87 %
09.09.2016 13:20 21,6 C 28,9 C 21,7 C 73 % 0 lf 1018,0 hPa 0,0 l/m 2 min 0 min 1439 W/m 10,5 km/h (2 Bft) 91,49 %
09.09.2016 13:22 21,7 C 28,9 C 21,1 C 71 % 0 lf 1018,1 hPa 0,0 l/m 2 min 0 min 541 W/m 10,5 km/h (2 Bft) 100,00 %
09.09.2016 13:24 21,7 C 27,8 C 20,6 C 70 % 0 lf 1018,0 hPa 0,0 l/m 0 min 0 min 175 W/m 14,6 km/h (3 Bft) 97,87 %
09.09.2016 13:26 21,7 C 29,4 C 20,6 C 70 % 0 lf 1018,0 hPa 0,0 l/m 2 min 0 min 399 W/m 8,4 km/h (2 Bft) 97,87 %
09.09.2016 13:28 21,7 C 31,1 C 20,6 C 71 % 0 lf 1018,0 hPa 0,0 l/m 2 min 0 min 767 W/m 8,4 km/h (2 Bft) 100,00 %
09.09.2016 13:30 21,8 C 30,0 C 20,6 C 70 % 0 lf 1018,0 hPa 0,0 l/m 2 min 0 min 767 W/m 10,5 km/h (2 Bft) 100,00 %
09.09.2016 13:32 21,8 C 29,4 C 20,6 C 70 % 0 lf 1018,0 hPa 0,0 l/m 2 min 0 min 404 W/m 6,3 km/h (2 Bft) 97,87 %
09.09.2016 13:34 21,8 C 31,1 C 20,6 C 70 % 0 lf 1018,0 hPa 0,0 l/m 2 min 0 min 623 W/m 8,4 km/h (2 Bft) 97,87 %
09.09.2016 13:36 21,9 C 32,8 C 20,6 C 70 % 0 lf 1018,0 hPa 0,0 l/m 2 min 0 min 745 W/m 12,6 km/h (3 Bft) 100,00 %
09.09.2016 13:38 22,0 C 31,1 C 21,1 C 70 % 0 lf 1018,0 hPa 0,0 l/m 2 min 0 min 748 W/m 10,5 km/h (2 Bft) 97,87 %
09.09.2016 13:40 22,1 C 30,6 C 21,1 C 69 % 0 lf 1018,0 hPa 0,0 l/m 2 min 0 min 738 W/m 12,6 km/h (3 Bft) 97,83 %
09.09.2016 13:42 22,2 C 30,0 C 21,1 C 69 % 0 lf 1017,9 hPa 0,0 l/m 2 min 0 min 728 W/m 8,4 km/h (2 Bft) 100,00 %
09.09.2016 13:44 22,3 C 32,2 C 21,1 C 69 % 0 lf 1018,0 hPa 0,0 l/m 2 min 0 min 728 W/m 10,5 km/h (2 Bft) 100,00 %
09.09.2016 13:46 22,4 C 33,9 C 21,7 C 69 % 0 lf 1017,9 hPa 0,0 l/m 2 min 0 min 733 W/m 12,6 km/h (3 Bft) 100,00 %
09.09.2016 13:48 22,6 C 32,8 C 21,7 C 68 % 0 lf 1018,0 hPa 0,0 l/m 2 min 0 min 754 W/m 10,5 km/h (2 Bft) 93,62 %
09.09.2016 13:50 22,7 C 32,2 C 21,7 C 68 % 0 lf 1018,0 hPa 0,0 l/m 2 min 0 min 741 W/m 14,6 km/h (3 Bft) 100,00 %
09.09.2016 13:52 22,8 C 32,8 C 21,7 C 68 % 0 lf 1018,0 hPa 0,0 l/m 2 min 0 min 729 W/m 12,6 km/h (3 Bft) 100,00 %
09.09.2016 13:54 22,8 C 30,0 C 21,1 C 66 % 0 lf 1018,0 hPa 0,0 l/m 2 min 0 min 698 W/m 14,6 km/h (3 Bft) 100,00 %
09.09.2016 13:56 22,9 C 31,1 C 21,1 C 66 % 0 lf 1018,1 hPa 0,0 l/m 0 min 0 min 244 W/m 10,5 km/h (2 Bft) 100,00 %
09.09.2016 13:58 22,9 C 32,2 C 21,1 C 66 % 0 lf 1018,0 hPa 0,0 l/m 2 min 0 min 538 W/m 10,5 km/h (2 Bft) 97,87 %
09.09.2016 14:00 23,0 C 33,9 C 21,1 C 66 % 0 lf 1018,0 hPa 0,0 l/m 2 min 0 min 738 W/m 12,6 km/h (3 Bft) 95,74 %
09.09.2016 14:02 23,1 C 33,3 C 21,7 C 66 % 0 lf 1017,9 hPa 0,0 l/m 2 min 0 min 716 W/m 12,6 km/h (3 Bft) 95,74 %
09.09.2016 14:04 23,1 C 32,2 C 21,7 C 65 % 0 lf 1017,9 hPa 0,0 l/m 2 min 0 min 704 W/m 10,5 km/h (2 Bft) 97,83 %
09.09.2016 14:06 23,2 C 31,7 C 21,7 C 65 % 0 lf 1018,0 hPa 0,0 l/m 2 min 0 min 714 W/m 18,8 km/h (3 Bft) 93,62 %
09.09.2016 14:08 23,2 C 31,7 C 21,7 C 66 % 0 lf 1018,0 hPa 0,0 l/m 2 min 0 min 722 W/m 10,5 km/h (2 Bft) 95,74 %
09.09.2016 14:10 23,2 C 32,2 C 21,7 C 65 % 0 lf 1017,9 hPa 0,0 l/m 2 min 0 min 729 W/m 14,6 km/h (3 Bft) 93,62 %
09.09.2016 14:12 23,2 C 32,2 C 21,7 C 64 % 0 lf 1017,8 hPa 0,0 l/m 2 min 0 min 720 W/m 6,3 km/h (2 Bft) 93,62 %
09.09.2016 14:14 23,3 C 33,9 C 21,7 C 65 % 0 lf 1017,8 hPa 0,0 l/m 2 min 0 min 717 W/m 10,5 km/h (2 Bft) 95,74 %
09.09.2016 14:16 23,3 C 31,7 C 21,7 C 63 % 0 lf 1017,8 hPa 0,0 l/m 2 min 0 min 721 W/m 12,6 km/h (3 Bft) 95,65 %
09.09.2016 14:18 23,4 C 32,8 C 21,7 C 64 % 0 lf 1017,7 hPa 0,0 l/m 2 min 0 min 714 W/m 12,6 km/h (3 Bft) 93,62 %
09.09.2016 14:20 23,5 C 33,3 C 21,7 C 64 % 0 lf 1017,7 hPa 0,0 l/m 2 min 0 min 709 W/m 14,6 km/h (3 Bft) 91,49 %
09.09.2016 14:22 23,5 C 33,9 C 21,7 C 64 % 0 lf 1017,7 hPa 0,0 l/m 2 min 0 min 706 W/m 10,5 km/h (2 Bft) 95,74 %
09.09.2016 14:24 23,6 C 31,1 C 21,7 C 64 % 0 lf 1017,7 hPa 0,0 l/m 2 min 0 min 627 W/m 12,6 km/h (3 Bft) 93,62 %
09.09.2016 14:26 23,6 C 30,0 C 21,1 C 64 % 0 lf 1017,7 hPa 0,0 l/m 0 min 0 min 238 W/m 8,4 km/h (2 Bft) 95,65 %
09.09.2016 14:28 23,7 C 30,6 C 21,7 C 64 % 0 lf 1017,7 hPa 0,0 l/m 2 min 0 min 658 W/m 10,5 km/h (2 Bft) 91,49 %
09.09.2016 14:30 23,7 C 30,0 C 21,7 C 64 % 0 lf 1017,7 hPa 0,0 l/m 2 min 0 min 699 W/m 18,8 km/h (3 Bft) 95,74 %
09.09.2016 14:32 23,7 C 32,2 C 21,7 C 64 % 0 lf 1017,7 hPa 0,0 l/m 2 min 0 min 688 W/m 12,6 km/h (3 Bft) 95,74 %
09.09.2016 14:34 23,8 C 31,7 C 21,7 C 64 % 0 lf 1017,7 hPa 0,0 l/m 2 min 0 min 672 W/m 16,7 km/h (3 Bft) 95,74 %
09.09.2016 14:36 23,8 C 32,2 C 21,7 C 64 % 0 lf 1017,6 hPa 0,0 l/m 2 min 0 min 678 W/m 12,6 km/h (3 Bft) 95,74 %
09.09.2016 14:38 23,8 C 30,6 C 21,7 C 63 % 0 lf 1017,6 hPa 0,0 l/m 2 min 0 min 682 W/m 12,6 km/h (3 Bft) 95,65 %
09.09.2016 14:40 23,9 C 31,1 C 21,7 C 63 % 0 lf 1017,6 hPa 0,0 l/m 2 min 0 min 683 W/m 10,5 km/h (2 Bft) 93,62 %
09.09.2016 14:42 23,9 C 31,7 C 21,7 C 63 % 0 lf 1017,6 hPa 0,0 l/m 2 min 0 min 682 W/m 10,5 km/h (2 Bft) 95,74 %
09.09.2016 14:44 23,9 C 31,1 C 21,7 C 64 % 0 lf 1017,5 hPa 0,0 l/m 2 min 0 min 681 W/m 14,6 km/h (3 Bft) 95,74 %
09.09.2016 14:46 23,9 C 29,4 C 21,7 C 62 % 0 lf 1017,5 hPa 0,0 l/m 2 min 0 min 667 W/m 16,7 km/h (3 Bft) 93,62 %
09.09.2016 14:48 23,9 C 29,4 C 22,2 C 62 % 0 lf 1017,5 hPa 0,0 l/m 2 min 0 min 656 W/m 12,6 km/h (3 Bft) 97,87 %
09.09.2016 14:50 24,0 C 30,0 C 22,2 C 62 % 0 lf 1017,5 hPa 0,0 l/m 2 min 0 min 648 W/m 8,4 km/h (2 Bft) 95,65 %
09.09.2016 14:52 24,0 C 30,0 C 22,2 C 62 % 0 lf 1017,5 hPa 0,0 l/m 2 min 0 min 648 W/m 8,4 km/h (2 Bft) 97,87 %
09.09.2016 14:54 24,1 C 30,6 C 22,2 C 62 % 0 lf 1017,5 hPa 0,0 l/m 2 min 0 min 652 W/m 10,5 km/h (2 Bft) 97,87 %
09.09.2016 14:56 24,1 C 29,4 C 21,7 C 60 % 0 lf 1017,4 hPa 0,0 l/m 2 min 0 min 651 W/m 4,2 km/h (1 Bft) 95,74 %
09.09.2016 14:58 24,1 C 30,0 C 21,7 C 61 % 0 lf 1017,4 hPa 0,0 l/m 2 min 0 min 645 W/m 4,2 km/h (1 Bft) 91,49 %
09.09.2016 15:00 24,1 C 31,1 C 21,7 C 61 % 0 lf 1017,4 hPa 0,0 l/m 2 min 0 min 654 W/m 8,4 km/h (2 Bft) 95,74 %
09.09.2016 15:02 24,1 C 31,1 C 22,2 C 62 % 0 lf 1017,4 hPa 0,0 l/m 2 min 0 min 650 W/m 14,6 km/h (3 Bft) 95,65 %
09.09.2016 15:04 24,1 C 32,2 C 23,3 C 62 % 0 lf 1017,4 hPa 0,0 l/m 2 min 0 min 646 W/m 10,5 km/h (2 Bft) 100,00 %
09.09.2016 15:06 24,1 C 31,7 C 25,0 C 62 % 0 lf 1017,4 hPa 0,0 l/m 2 min 0 min 645 W/m 10,5 km/h (2 Bft) 97,87 %
09.09.2016 15:08 24,1 C 33,3 C 26,1 C 61 % 0 lf 1017,4 hPa 0,0 l/m 2 min 0 min 645 W/m 6,3 km/h (2 Bft) 97,87 %
09.09.2016 15:10 24,1 C 32,2 C 25,6 C 61 % 0 lf 1017,5 hPa 0,0 l/m 2 min 0 min 645 W/m 14,6 km/h (3 Bft) 95,74 %
09.09.2016 15:12 24,2 C 32,8 C 26,1 C 61 % 0 lf 1017,4 hPa 0,0 l/m 2 min 0 min 1053 W/m 16,7 km/h (3 Bft) 95,74 %
09.09.2016 15:14 24,2 C 33,9 C 26,7 C 61 % 0 lf 1017,4 hPa 0,0 l/m 2 min 0 min 1188 W/m 8,4 km/h (2 Bft) 93,48 %
09.09.2016 15:16 24,2 C 31,7 C 27,2 C 60 % 0 lf 1017,4 hPa 0,0 l/m 2 min 0 min 1166 W/m 8,4 km/h (2 Bft) 97,87 %
09.09.2016 15:18 24,2 C 30,0 C 26,1 C 60 % 0 lf 1017,4 hPa 0,0 l/m 2 min 0 min 1166 W/m 8,4 km/h (2 Bft) 95,74 %
09.09.2016 15:20 24,2 C 31,1 C 25,6 C 60 % 0 lf 1017,4 hPa 0,0 l/m 2 min 0 min 719 W/m 12,6 km/h (3 Bft) 95,74 %
09.09.2016 15:22 24,2 C 32,8 C 25,6 C 61 % 0 lf 1017,4 hPa 0,0 l/m 2 min 0 min 619 W/m 10,5 km/h (2 Bft) 95,74 %
09.09.2016 15:24 24,2 C 33,3 C 25,6 C 61 % 0 lf 1017,4 hPa 0,0 l/m 2 min 0 min 618 W/m 6,3 km/h (2 Bft) 95,74 %
09.09.2016 15:26 24,3 C 32,8 C 25,6 C 60 % 0 lf 1017,4 hPa 0,0 l/m 2 min 0 min 619 W/m 4,2 km/h (1 Bft) 91,30 %
09.09.2016 15:28 24,3 C 32,2 C 25,0 C 60 % 0 lf 1017,3 hPa 0,0 l/m 2 min 0 min 616 W/m 4,2 km/h (1 Bft) 95,74 %
09.09.2016 15:30 24,3 C 31,7 C 25,0 C 60 % 0 lf 1017,3 hPa 0,0 l/m 2 min 0 min 606 W/m 12,6 km/h (3 Bft) 95,74 %
09.09.2016 15:32 24,3 C 28,9 C 23,9 C 59 % 0 lf 1017,3 hPa 0,0 l/m 2 min 0 min 602 W/m 8,4 km/h (2 Bft) 91,49 %
09.09.2016 15:34 24,3 C 28,3 C 23,3 C 59 % 0 lf 1017,2 hPa 0,0 l/m 2 min 0 min 599 W/m 8,4 km/h (2 Bft) 95,74 %
09.09.2016 15:36 24,2 C 28,9 C 22,8 C 59 % 0 lf 1017,2 hPa 0,0 l/m 2 min 0 min 598 W/m 4,2 km/h (1 Bft) 95,65 %
09.09.2016 15:38 24,1 C 29,4 C 22,8 C 59 % 0 lf 1017,1 hPa 0,0 l/m 2 min 0 min 598 W/m 4,2 km/h (1 Bft) 91,49 %
09.09.2016 15:40 24,1 C 30,0 C 22,2 C 60 % 0 lf 1017,1 hPa 0,0 l/m 2 min 0 min 593 W/m 6,3 km/h (2 Bft) 95,74 %
09.09.2016 15:42 24,1 C 30,6 C 22,2 C 61 % 0 lf 1017,1 hPa 0,0 l/m 2 min 0 min 593 W/m 4,2 km/h (1 Bft) 97,87 %
09.09.2016 15:44 24,1 C 32,2 C 21,7 C 60 % 0 lf 1017,0 hPa 0,0 l/m 2 min 0 min 822 W/m 4,2 km/h (1 Bft) 95,74 %
09.09.2016 15:46 24,2 C 32,2 C 21,7 C 60 % 0 lf 1017,1 hPa 0,0 l/m 2 min 0 min 1123 W/m 10,5 km/h (2 Bft) 93,62 %
09.09.2016 15:48 24,2 C 32,2 C 21,7 C 60 % 0 lf 1017,1 hPa 0,0 l/m 2 min 0 min 730 W/m 12,6 km/h (3 Bft) 95,65 %
09.09.2016 15:50 24,2 C 31,7 C 21,7 C 60 % 0 lf 1017,0 hPa 0,0 l/m 2 min 0 min 581 W/m 8,4 km/h (2 Bft) 95,74 %
09.09.2016 15:52 24,2 C 30,6 C 22,2 C 59 % 0 lf 1017,0 hPa 0,0 l/m 2 min 0 min 602 W/m 10,5 km/h (2 Bft) 95,74 %
09.09.2016 15:54 24,2 C 30,0 C 21,7 C 59 % 0 lf 1017,0 hPa 0,0 l/m 2 min 0 min 595 W/m 12,6 km/h (3 Bft) 93,62 %
09.09.2016 15:56 24,1 C 27,8 C 21,7 C 59 % 0 lf 1017,0 hPa 0,0 l/m 2 min 0 min 582 W/m 14,6 km/h (3 Bft) 100,00 %
09.09.2016 15:58 24,1 C 27,8 C 21,1 C 58 % 0 lf 1017,0 hPa 0,0 l/m 2 min 0 min 860 W/m 4,2 km/h (1 Bft) 97,87 %
09.09.2016 16:00 24,0 C 29,4 C 21,1 C 59 % 0 lf 1017,0 hPa 0,0 l/m 2 min 0 min 941 W/m 6,3 km/h (2 Bft) 100,00 %
09.09.2016 16:02 23,9 C 30,6 C 21,1 C 59 % 0 lf 1017,0 hPa 0,0 l/m 2 min 0 min 880 W/m 4,2 km/h (1 Bft) 97,87 %
09.09.2016 16:04 23,9 C 32,8 C 21,1 C 59 % 0 lf 1017,0 hPa 0,0 l/m 2 min 0 min 863 W/m 4,2 km/h (1 Bft) 100,00 %
09.09.2016 16:06 24,0 C 33,9 C 21,1 C 59 % 0 lf 1017,0 hPa 0,0 l/m 2 min 0 min 870 W/m 8,4 km/h (2 Bft) 95,74 %
09.09.2016 16:08 24,0 C 33,3 C 21,1 C 60 % 0 lf 1017,0 hPa 0,0 l/m 2 min 0 min 865 W/m 8,4 km/h (2 Bft) 97,87 %
09.09.2016 16:10 24,1 C 33,3 C 21,7 C 60 % 0 lf 1017,0 hPa 0,0 l/m 2 min 0 min 867 W/m 14,6 km/h (3 Bft) 100,00 %
09.09.2016 16:12 24,1 C 33,9 C 21,7 C 59 % 0 lf 1017,0 hPa 0,0 l/m 2 min 0 min 867 W/m 10,5 km/h (2 Bft) 97,83 %
09.09.2016 16:14 24,2 C 32,2 C 21,7 C 58 % 0 lf 1016,9 hPa 0,0 l/m 2 min 0 min 919 W/m 8,4 km/h (2 Bft) 100,00 %
09.09.2016 16:16 24,2 C 31,1 C 21,7 C 58 % 0 lf 1017,0 hPa 0,0 l/m 2 min 0 min 1225 W/m 6,3 km/h (2 Bft) 97,87 %
09.09.2016 16:18 24,2 C 31,1 C 21,7 C 58 % 0 lf 1016,9 hPa 0,0 l/m 2 min 0 min 1216 W/m 6,3 km/h (2 Bft) 95,74 %
09.09.2016 16:20 24,2 C 29,4 C 21,7 C 57 % 0 lf 1016,9 hPa 0,0 l/m 2 min 0 min 1211 W/m 8,4 km/h (2 Bft) 97,87 %
09.09.2016 16:22 24,1 C 28,9 C 21,7 C 57 % 0 lf 1016,9 hPa 0,0 l/m 2 min 0 min 1205 W/m 6,3 km/h (2 Bft) 95,74 %
09.09.2016 16:24 24,1 C 29,4 C 21,7 C 57 % 0 lf 1016,9 hPa 0,0 l/m 2 min 0 min 1201 W/m 6,3 km/h (2 Bft) 97,83 %
09.09.2016 16:26 24,1 C 31,1 C 22,2 C 58 % 0 lf 1016,9 hPa 0,0 l/m 2 min 0 min 1198 W/m 10,5 km/h (2 Bft) 95,74 %
09.09.2016 16:28 24,2 C 31,1 C 22,2 C 59 % 0 lf 1016,8 hPa 0,0 l/m 2 min 0 min 1194 W/m 10,5 km/h (2 Bft) 95,74 %
09.09.2016 16:30 24,2 C 30,6 C 22,2 C 58 % 0 lf 1016,7 hPa 0,0 l/m 2 min 0 min 1192 W/m 8,4 km/h (2 Bft) 97,87 %
09.09.2016 16:32 24,2 C 32,2 C 21,7 C 59 % 0 lf 1016,7 hPa 0,0 l/m 2 min 0 min 1190 W/m 8,4 km/h (2 Bft) 97,87 %
09.09.2016 16:34 24,2 C 31,1 C 21,7 C 58 % 0 lf 1016,7 hPa 0,0 l/m 2 min 0 min 1184 W/m 10,5 km/h (2 Bft) 93,62 %
09.09.2016 16:36 24,3 C 31,7 C 21,7 C 58 % 0 lf 1016,7 hPa 0,0 l/m 2 min 0 min 1178 W/m 8,4 km/h (2 Bft) 95,65 %
09.09.2016 16:38 24,3 C 32,8 C 21,7 C 58 % 0 lf 1016,6 hPa 0,0 l/m 2 min 0 min 1172 W/m 8,4 km/h (2 Bft) 97,87 %
09.09.2016 16:40 24,3 C 31,1 C 21,7 C 57 % 0 lf 1016,7 hPa 0,0 l/m 2 min 0 min 1170 W/m 10,5 km/h (2 Bft) 97,87 %
09.09.2016 16:42 24,3 C 32,2 C 21,7 C 58 % 0 lf 1016,6 hPa 0,0 l/m 2 min 0 min 1165 W/m 8,4 km/h (2 Bft) 95,74 %
09.09.2016 16:44 24,3 C 32,2 C 21,7 C 57 % 0 lf 1016,7 hPa 0,0 l/m 2 min 0 min 1163 W/m 8,4 km/h (2 Bft) 97,87 %
09.09.2016 16:46 24,4 C 31,7 C 21,7 C 56 % 0 lf 1016,6 hPa 0,0 l/m 2 min 0 min 1158 W/m 8,4 km/h (2 Bft) 97,87 %
09.09.2016 16:48 24,4 C 32,2 C 21,7 C 55 % 0 lf 1016,7 hPa 0,0 l/m 2 min 0 min 1155 W/m 4,2 km/h (1 Bft) 95,65 %
09.09.2016 16:50 24,4 C 30,0 C 21,1 C 55 % 0 lf 1016,7 hPa 0,0 l/m 2 min 0 min 1151 W/m 2,1 km/h (1 Bft) 97,87 %
09.09.2016 16:52 24,4 C 30,0 C 21,1 C 54 % 0 lf 1016,6 hPa 0,0 l/m 2 min 0 min 1147 W/m 6,3 km/h (2 Bft) 100,00 %
09.09.2016 16:54 24,3 C 31,1 C 21,1 C 55 % 0 lf 1016,6 hPa 0,0 l/m 2 min 0 min 1144 W/m 8,4 km/h (2 Bft) 100,00 %
09.09.2016 16:56 24,3 C 32,2 C 21,1 C 55 % 0 lf 1016,6 hPa 0,0 l/m 2 min 0 min 1141 W/m 6,3 km/h (2 Bft) 100,00 %
09.09.2016 16:58 24,3 C 32,8 C 21,1 C 56 % 0 lf 1016,6 hPa 0,0 l/m 2 min 0 min 1137 W/m 4,2 km/h (1 Bft) 100,00 %
09.09.2016 17:00 24,3 C 31,1 C 21,1 C 56 % 0 lf 1016,6 hPa 0,0 l/m 2 min 0 min 1135 W/m 8,4 km/h (2 Bft) 100,00 %
09.09.2016 17:02 24,3 C 32,2 C 21,1 C 57 % 0 lf 1016,6 hPa 0,0 l/m 2 min 0 min 1134 W/m 8,4 km/h (2 Bft) 95,74 %
09.09.2016 17:04 24,3 C 32,2 C 21,1 C 56 % 0 lf 1016,6 hPa 0,0 l/m 2 min 0 min 1131 W/m 14,6 km/h (3 Bft) 95,74 %
09.09.2016 17:06 24,3 C 31,1 C 21,1 C 55 % 0 lf 1016,6 hPa 0,0 l/m 2 min 0 min 1129 W/m 6,3 km/h (2 Bft) 95,74 %
09.09.2016 17:08 24,3 C 29,4 C 21,1 C 55 % 0 lf 1016,6 hPa 0,0 l/m 2 min 0 min 1124 W/m 4,2 km/h (1 Bft) 100,00 %
09.09.2016 17:10 24,3 C 28,9 C 21,1 C 55 % 0 lf 1016,6 hPa 0,0 l/m 2 min 0 min 1120 W/m 4,2 km/h (1 Bft) 100,00 %
09.09.2016 17:12 24,3 C 30,0 C 21,1 C 55 % 0 lf 1016,6 hPa 0,0 l/m 2 min 0 min 1117 W/m 4,2 km/h (1 Bft) 97,83 %
09.09.2016 17:14 24,3 C 30,6 C 21,1 C 55 % 0 lf 1016,5 hPa 0,0 l/m 2 min 0 min 1115 W/m 6,3 km/h (2 Bft) 100,00 %
09.09.2016 17:16 24,3 C 29,4 C 21,1 C 55 % 0 lf 1016,5 hPa 0,0 l/m 2 min 0 min 1113 W/m 8,4 km/h (2 Bft) 97,87 %
09.09.2016 17:18 24,3 C 29,4 C 20,6 C 55 % 0 lf 1016,6 hPa 0,0 l/m 2 min 0 min 1108 W/m 6,3 km/h (2 Bft) 97,87 %
09.09.2016 17:20 24,3 C 29,4 C 20,6 C 54 % 0 lf 1016,5 hPa 0,0 l/m 2 min 0 min 1104 W/m 4,2 km/h (1 Bft) 95,74 %
09.09.2016 17:22 24,3 C 30,6 C 20,6 C 55 % 0 lf 1016,4 hPa 0,0 l/m 2 min 0 min 1101 W/m 6,3 km/h (2 Bft) 97,83 %
09.09.2016 17:24 24,3 C 31,7 C 20,6 C 56 % 0 lf 1016,4 hPa 0,0 l/m 2 min 0 min 1098 W/m 8,4 km/h (2 Bft) 97,87 %
09.09.2016 17:26 24,3 C 31,1 C 20,6 C 56 % 0 lf 1016,4 hPa 0,0 l/m 2 min 0 min 1092 W/m 8,4 km/h (2 Bft) 97,87 %
09.09.2016 17:28 24,4 C 31,7 C 20,6 C 56 % 0 lf 1016,4 hPa 0,0 l/m 2 min 0 min 1089 W/m 8,4 km/h (2 Bft) 95,74 %
09.09.2016 17:30 24,4 C 29,4 C 21,1 C 55 % 0 lf 1016,5 hPa 0,0 l/m 2 min 0 min 1087 W/m 12,6 km/h (3 Bft) 95,74 %
09.09.2016 17:32 24,4 C 30,0 C 21,1 C 54 % 0 lf 1016,4 hPa 0,0 l/m 2 min 0 min 1083 W/m 6,3 km/h (2 Bft) 95,74 %
09.09.2016 17:34 24,4 C 30,6 C 21,1 C 54 % 0 lf 1016,4 hPa 0,0 l/m 2 min 0 min 1079 W/m 4,2 km/h (1 Bft) 97,83 %
09.09.2016 17:36 24,4 C 30,0 C 20,6 C 55 % 0 lf 1016,4 hPa 0,0 l/m 2 min 0 min 1077 W/m 8,4 km/h (2 Bft) 93,62 %
09.09.2016 17:38 24,4 C 30,6 C 20,6 C 55 % 0 lf 1016,4 hPa 0,0 l/m 2 min 0 min 1073 W/m 6,3 km/h (2 Bft) 95,74 %
09.09.2016 17:40 24,4 C 30,6 C 20,6 C 53 % 0 lf 1016,4 hPa 0,0 l/m 2 min 0 min 1069 W/m 2,1 km/h (1 Bft) 97,87 %
09.09.2016 17:42 24,4 C 30,0 C 20,6 C 53 % 0 lf 1016,4 hPa 0,0 l/m 2 min 0 min 1064 W/m 2,1 km/h (1 Bft) 97,87 %
09.09.2016 17:44 24,4 C 29,4 C 20,6 C 54 % 0 lf 1016,4 hPa 0,0 l/m 2 min 0 min 1060 W/m 8,4 km/h (2 Bft) 100,00 %
09.09.2016 17:46 24,4 C 28,3 C 20,6 C 53 % 0 lf 1016,4 hPa 0,0 l/m 2 min 0 min 1058 W/m 6,3 km/h (2 Bft) 95,65 %
09.09.2016 17:48 24,4 C 27,8 C 20,6 C 54 % 0 lf 1016,3 hPa 0,0 l/m 2 min 0 min 1054 W/m 4,2 km/h (1 Bft) 91,49 %
09.09.2016 17:50 24,4 C 28,9 C 20,6 C 54 % 0 lf 1016,3 hPa 0,0 l/m 2 min 0 min 1048 W/m 4,2 km/h (1 Bft) 93,62 %
09.09.2016 17:52 24,4 C 28,9 C 20,6 C 54 % 0 lf 1016,3 hPa 0,0 l/m 2 min 0 min 1046 W/m 6,3 km/h (2 Bft) 95,74 %
09.09.2016 17:54 24,4 C 28,9 C 20,6 C 54 % 0 lf 1016,3 hPa 0,0 l/m 2 min 0 min 1043 W/m 8,4 km/h (2 Bft) 93,62 %
09.09.2016 17:56 24,4 C 28,3 C 20,6 C 54 % 0 lf 1016,2 hPa 0,0 l/m 2 min 0 min 1041 W/m 10,5 km/h (2 Bft) 95,74 %
09.09.2016 17:58 24,4 C 28,3 C 20,6 C 54 % 0 lf 1016,3 hPa 0,0 l/m 2 min 0 min 1036 W/m 10,5 km/h (2 Bft) 91,30 %
09.09.2016 18:00 24,5 C 27,2 C 20,6 C 53 % 0 lf 1016,3 hPa 0,0 l/m 2 min 0 min 1031 W/m 6,3 km/h (2 Bft) 95,74 %
09.09.2016 18:02 24,4 C 27,8 C 20,0 C 53 % 0 lf 1016,3 hPa 0,0 l/m 2 min 0 min 1027 W/m 8,4 km/h (2 Bft) 97,87 %
09.09.2016 18:04 24,5 C 27,8 C 20,0 C 53 % 0 lf 1016,4 hPa 0,0 l/m 2 min 0 min 1021 W/m 8,4 km/h (2 Bft) 91,49 %
09.09.2016 18:06 24,5 C 28,3 C 20,0 C 53 % 0 lf 1016,4 hPa 0,0 l/m 2 min 0 min 1017 W/m 8,4 km/h (2 Bft) 95,74 %
09.09.2016 18:08 24,5 C 27,8 C 20,0 C 53 % 0 lf 1016,4 hPa 0,0 l/m 2 min 0 min 1012 W/m 8,4 km/h (2 Bft) 93,62 %
09.09.2016 18:10 24,4 C 26,7 C 20,0 C 51 % 0 lf 1016,3 hPa 0,0 l/m 2 min 0 min 1009 W/m 6,3 km/h (2 Bft) 91,30 %
09.09.2016 18:12 24,4 C 26,1 C 20,0 C 51 % 0 lf 1016,3 hPa 0,0 l/m 2 min 0 min 1003 W/m 4,2 km/h (1 Bft) 95,74 %
09.09.2016 18:14 24,4 C 25,0 C 20,0 C 51 % 0 lf 1016,4 hPa 0,0 l/m 2 min 0 min 998 W/m 2,1 km/h (1 Bft) 93,62 %
09.09.2016 18:16 24,4 C 24,4 C 20,0 C 52 % 0 lf 1016,3 hPa 0,0 l/m 2 min 0 min 995 W/m 8,4 km/h (2 Bft) 93,62 %
09.09.2016 18:18 24,3 C 24,4 C 20,0 C 52 % 0 lf 1016,3 hPa 0,0 l/m 2 min 0 min 990 W/m 8,4 km/h (2 Bft) 95,74 %
09.09.2016 18:20 24,3 C 23,9 C 20,0 C 53 % 0 lf 1016,3 hPa 0,0 l/m 2 min 0 min 985 W/m 8,4 km/h (2 Bft) 93,62 %
09.09.2016 18:22 24,2 C 23,9 C 19,4 C 53 % 0 lf 1016,3 hPa 0,0 l/m 2 min 0 min 981 W/m 8,4 km/h (2 Bft) 93,48 %
09.09.2016 18:24 24,1 C 23,9 C 19,4 C 52 % 0 lf 1016,2 hPa 0,0 l/m 2 min 0 min 184 W/m 6,3 km/h (2 Bft) 95,74 %
09.09.2016 18:26 24,1 C 23,9 C 20,0 C 52 % 0 lf 1016,2 hPa 0,0 l/m 2 min 0 min 177 W/m 8,4 km/h (2 Bft) 93,62 %
09.09.2016 18:28 24,0 C 23,3 C 19,4 C 52 % 0 lf 1016,2 hPa 0,0 l/m 2 min 0 min 171 W/m 6,3 km/h (2 Bft) 93,62 %
09.09.2016 18:30 24,0 C 23,3 C 19,4 C 53 % 0 lf 1016,2 hPa 0,0 l/m 2 min 0 min 165 W/m 4,2 km/h (1 Bft) 93,62 %
09.09.2016 18:32 23,9 C 23,3 C 19,4 C 53 % 0 lf 1016,2 hPa 0,0 l/m 2 min 0 min 158 W/m 6,3 km/h (2 Bft) 97,83 %
09.09.2016 18:34 23,9 C 23,3 C 19,4 C 53 % 0 lf 1016,2 hPa 0,0 l/m 2 min 0 min 152 W/m 6,3 km/h (2 Bft) 95,74 %
09.09.2016 18:36 23,9 C 23,3 C 18,9 C 53 % 0 lf 1016,2 hPa 0,0 l/m 2 min 0 min 146 W/m 4,2 km/h (1 Bft) 93,62 %
09.09.2016 18:38 23,8 C 23,3 C 19,4 C 53 % 0 lf 1016,2 hPa 0,0 l/m 2 min 0 min 139 W/m 6,3 km/h (2 Bft) 91,49 %
09.09.2016 18:40 23,8 C 23,3 C 19,4 C 53 % 0 lf 1016,2 hPa 0,0 l/m 2 min 0 min 135 W/m 6,3 km/h (2 Bft) 95,74 %
09.09.2016 18:42 23,8 C 23,3 C 18,9 C 54 % 0 lf 1016,2 hPa 0,0 l/m 2 min 0 min 134 W/m 6,3 km/h (2 Bft) 95,74 %
09.09.2016 18:44 23,7 C 23,3 C 18,9 C 55 % 0 lf 1016,2 hPa 0,0 l/m 2 min 0 min 130 W/m 6,3 km/h (2 Bft) 95,65 %
09.09.2016 18:46 23,7 C 22,8 C 19,4 C 53 % 0 lf 1016,2 hPa 0,0 l/m 2 min 0 min 124 W/m 4,2 km/h (1 Bft) 95,74 %
09.09.2016 18:48 23,7 C 22,8 C 18,9 C 53 % 0 lf 1016,2 hPa 0,0 l/m 2 min 0 min 118 W/m 6,3 km/h (2 Bft) 95,74 %
09.09.2016 18:50 23,6 C 22,8 C 18,9 C 54 % 0 lf 1016,2 hPa 0,0 l/m 2 min 0 min 112 W/m 8,4 km/h (2 Bft) 93,62 %
09.09.2016 18:52 23,6 C 22,8 C 18,9 C 55 % 0 lf 1016,1 hPa 0,0 l/m 2 min 0 min 105 W/m 10,5 km/h (2 Bft) 95,74 %
09.09.2016 18:54 23,5 C 22,8 C 18,9 C 55 % 0 lf 1016,2 hPa 0,0 l/m 2 min 0 min 98 W/m 6,3 km/h (2 Bft) 97,87 %
09.09.2016 18:56 23,4 C 22,8 C 18,9 C 56 % 0 lf 1016,2 hPa 0,0 l/m 2 min 0 min 93 W/m 6,3 km/h (2 Bft) 97,83 %
09.09.2016 18:58 23,4 C 22,8 C 18,3 C 56 % 0 lf 1016,2 hPa 0,0 l/m 2 min 0 min 88 W/m 2,1 km/h (1 Bft) 95,74 %
09.09.2016 19:00 23,4 C 22,8 C 18,3 C 56 % 0 lf 1016,3 hPa 0,0 l/m 2 min 0 min 83 W/m 4,2 km/h (1 Bft) 95,74 %
09.09.2016 19:02 23,3 C 22,8 C 18,3 C 55 % 0 lf 1016,2 hPa 0,0 l/m 0 min 0 min 69 W/m 2,1 km/h (1 Bft) 95,74 %
09.09.2016 19:04 23,3 C 22,2 C 18,3 C 56 % 0 lf 1016,2 hPa 0,0 l/m 0 min 0 min 50 W/m 4,2 km/h (1 Bft) 97,87 %
09.09.2016 19:06 23,2 C 22,2 C 18,3 C 56 % 0 lf 1016,2 hPa 0,0 l/m 0 min 0 min 43 W/m 6,3 km/h (2 Bft) 97,87 %
09.09.2016 19:08 23,2 C 22,2 C 18,3 C 56 % 0 lf 1016,2 hPa 0,0 l/m 0 min 0 min 41 W/m 8,4 km/h (2 Bft) 95,65 %
09.09.2016 19:10 23,1 C 22,2 C 18,3 C 56 % 0 lf 1016,2 hPa 0,0 l/m 0 min 0 min 40 W/m 4,2 km/h (1 Bft) 97,87 %
09.09.2016 19:12 23,1 C 22,2 C 17,8 C 57 % 0 lf 1016,2 hPa 0,0 l/m 0 min 0 min 39 W/m 4,2 km/h (1 Bft) 95,74 %
09.09.2016 19:14 23,1 C 21,7 C 17,8 C 57 % 0 lf 1016,1 hPa 0,0 l/m 0 min 0 min 39 W/m 4,2 km/h (1 Bft) 100,00 %
09.09.2016 19:16 23,0 C 21,7 C 17,8 C 58 % 0 lf 1016,2 hPa 0,0 l/m 0 min 0 min 37 W/m 2,1 km/h (1 Bft) 97,87 %
09.09.2016 19:18 22,9 C 21,7 C 17,2 C 58 % 0 lf 1016,2 hPa 0,0 l/m 0 min 0 min 37 W/m 4,2 km/h (1 Bft) 95,74 %
09.09.2016 19:20 22,9 C 21,1 C 17,2 C 60 % 0 lf 1016,2 hPa 0,0 l/m 0 min 0 min 35 W/m 2,1 km/h (1 Bft) 95,65 %
09.09.2016 19:22 22,8 C 21,1 C 17,2 C 60 % 0 lf 1016,2 hPa 0,0 l/m 0 min 0 min 34 W/m 2,1 km/h (1 Bft) 97,87 %
09.09.2016 19:24 22,8 C 21,1 C 17,2 C 60 % 0 lf 1016,2 hPa 0,0 l/m 0 min 0 min 33 W/m 4,2 km/h (1 Bft) 97,87 %
09.09.2016 19:26 22,7 C 20,6 C 16,7 C 61 % 0 lf 1016,1 hPa 0,0 l/m 0 min 0 min 30 W/m 2,1 km/h (1 Bft) 93,62 %
09.09.2016 19:28 22,7 C 20,6 C 16,7 C 61 % 0 lf 1016,1 hPa 0,0 l/m 0 min 0 min 28 W/m 2,1 km/h (1 Bft) 100,00 %
09.09.2016 19:30 22,6 C 20,6 C 16,7 C 62 % 0 lf 1016,2 hPa 0,0 l/m 0 min 0 min 26 W/m 2,1 km/h (1 Bft) 100,00 %
09.09.2016 19:32 22,5 C 20,0 C 16,7 C 62 % 0 lf 1016,2 hPa 0,0 l/m 0 min 0 min 26 W/m 2,1 km/h (1 Bft) 93,48 %
09.09.2016 19:34 22,4 C 20,0 C 16,7 C 63 % 0 lf 1016,2 hPa 0,0 l/m 0 min 0 min 25 W/m 2,1 km/h (1 Bft) 97,87 %
09.09.2016 19:36 22,4 C 20,0 C 16,1 C 63 % 0 lf 1016,2 hPa 0,0 l/m 0 min 0 min 24 W/m 0,0 km/h (0 Bft) 97,87 %
09.09.2016 19:38 22,3 C 20,0 C 16,1 C 64 % 0 lf 1016,1 hPa 0,0 l/m 0 min 0 min 23 W/m 0,0 km/h (0 Bft) 100,00 %
09.09.2016 19:40 22,2 C 20,0 C 16,1 C 64 % 0 lf 1016,1 hPa 0,0 l/m 2 min 0 min 22 W/m 0,0 km/h (0 Bft) 100,00 %
09.09.2016 19:42 22,1 C 19,4 C 16,1 C 64 % 0 lf 1016,1 hPa 0,0 l/m 2 min 0 min 21 W/m 0,0 km/h (0 Bft) 100,00 %
09.09.2016 19:44 22,0 C 19,4 C 16,1 C 65 % 0 lf 1016,2 hPa 0,0 l/m 2 min 0 min 20 W/m 0,0 km/h (0 Bft) 100,00 %
09.09.2016 19:46 21,9 C 19,4 C 15,6 C 65 % 0 lf 1016,2 hPa 0,0 l/m 2 min 0 min 19 W/m 0,0 km/h (0 Bft) 97,87 %
09.09.2016 19:48 21,8 C 19,4 C 15,6 C 66 % 0 lf 1016,2 hPa 0,0 l/m 0 min 0 min 18 W/m 0,0 km/h (0 Bft) 100,00 %
09.09.2016 19:50 21,7 C 18,9 C 15,6 C 66 % 0 lf 1016,2 hPa 0,0 l/m 0 min 0 min 18 W/m 0,0 km/h (0 Bft) 100,00 %
09.09.2016 19:52 21,6 C 18,9 C 15,6 C 66 % 0 lf 1016,3 hPa 0,0 l/m 0 min 0 min 16 W/m 0,0 km/h (0 Bft) 100,00 %
09.09.2016 19:54 21,5 C 18,9 C 15,6 C 66 % 0 lf 1016,3 hPa 0,0 l/m 0 min 0 min 15 W/m 0,0 km/h (0 Bft) 100,00 %
09.09.2016 19:56 21,4 C 18,9 C 15,6 C 67 % 0 lf 1016,3 hPa 0,0 l/m 0 min 0 min 14 W/m 0,0 km/h (0 Bft) 100,00 %
09.09.2016 19:58 21,3 C 18,9 C 15,0 C 67 % 0 lf 1016,3 hPa 0,0 l/m 0 min 0 min 13 W/m 0,0 km/h (0 Bft) 100,00 %
09.09.2016 20:00 21,2 C 18,9 C 15,0 C 67 % 0 lf 1016,3 hPa 0,0 l/m 0 min 0 min 12 W/m 0,0 km/h (0 Bft) 97,87 %
09.09.2016 20:02 21,1 C 18,3 C 15,0 C 67 % 0 lf 1016,4 hPa 0,0 l/m 0 min 0 min 11 W/m 0,0 km/h (0 Bft) 100,00 %
09.09.2016 20:04 21,0 C 18,3 C 15,0 C 67 % 0 lf 1016,4 hPa 0,0 l/m 0 min 0 min 11 W/m 0,0 km/h (0 Bft) 100,00 %
09.09.2016 20:06 20,9 C 18,3 C 15,0 C 68 % 0 lf 1016,5 hPa 0,0 l/m 0 min 0 min 9 W/m 0,0 km/h (0 Bft) 97,87 %
09.09.2016 20:08 20,8 C 18,3 C 15,0 C 68 % 0 lf 1016,4 hPa 0,0 l/m 0 min 0 min 9 W/m 0,0 km/h (0 Bft) 100,00 %
09.09.2016 20:10 20,7 C 17,8 C 15,0 C 68 % 0 lf 1016,4 hPa 0,0 l/m 0 min 0 min 8 W/m 0,0 km/h (0 Bft) 100,00 %
09.09.2016 20:12 20,6 C 17,8 C 15,0 C 69 % 0 lf 1016,5 hPa 0,0 l/m 0 min 0 min 7 W/m 0,0 km/h (0 Bft) 93,62 %
09.09.2016 20:14 20,5 C 17,8 C 14,4 C 69 % 0 lf 1016,5 hPa 0,0 l/m 0 min 0 min 6 W/m 0,0 km/h (0 Bft) 97,87 %
09.09.2016 20:16 20,4 C 17,8 C 14,4 C 69 % 0 lf 1016,6 hPa 0,0 l/m 0 min 0 min 5 W/m 0,0 km/h (0 Bft) 100,00 %
09.09.2016 20:18 20,3 C 17,8 C 14,4 C 69 % 0 lf 1016,6 hPa 0,0 l/m 0 min 0 min 5 W/m 0,0 km/h (0 Bft) 95,65 %
09.09.2016 20:20 20,3 C 17,8 C 14,4 C 69 % 0 lf 1016,7 hPa 0,0 l/m 0 min 0 min 5 W/m 0,0 km/h (0 Bft) 97,87 %
09.09.2016 20:22 20,2 C 17,8 C 14,4 C 69 % 0 lf 1016,6 hPa 0,0 l/m 0 min 0 min 5 W/m 0,0 km/h (0 Bft) 97,87 %
09.09.2016 20:24 20,1 C 17,8 C 14,4 C 69 % 0 lf 1016,6 hPa 0,0 l/m 0 min 0 min 5 W/m 0,0 km/h (0 Bft) 93,62 %
09.09.2016 20:26 20,0 C 17,2 C 14,4 C 69 % 0 lf 1016,7 hPa 0,0 l/m 0 min 0 min 5 W/m 0,0 km/h (0 Bft) 93,62 %
09.09.2016 20:28 19,9 C 17,2 C 13,9 C 70 % 0 lf 1016,7 hPa 0,0 l/m 0 min 0 min 5 W/m 0,0 km/h (0 Bft) 95,74 %
09.09.2016 20:30 19,8 C 17,2 C 13,9 C 70 % 0 lf 1016,7 hPa 0,0 l/m 0 min 0 min 5 W/m 0,0 km/h (0 Bft) 95,65 %
09.09.2016 20:32 19,7 C 17,2 C 13,9 C 71 % 0 lf 1016,7 hPa 0,0 l/m 0 min 0 min 5 W/m 0,0 km/h (0 Bft) 95,74 %
09.09.2016 20:34 19,6 C 16,7 C 13,9 C 71 % 0 lf 1016,7 hPa 0,0 l/m 0 min 0 min 5 W/m 0,0 km/h (0 Bft) 93,62 %
09.09.2016 20:36 19,6 C 16,7 C 13,9 C 72 % 0 lf 1016,7 hPa 0,0 l/m 0 min 0 min 5 W/m 0,0 km/h (0 Bft) 91,49 %
09.09.2016 20:38 19,4 C 16,7 C 13,9 C 72 % 0 lf 1016,7 hPa 0,0 l/m 0 min 0 min 5 W/m 0,0 km/h (0 Bft) 91,49 %
09.09.2016 20:40 19,3 C 16,7 C 13,9 C 72 % 0 lf 1016,7 hPa 0,0 l/m 0 min 0 min 5 W/m 0,0 km/h (0 Bft) 93,62 %
09.09.2016 20:42 19,2 C 16,7 C 13,9 C 73 % 0 lf 1016,7 hPa 0,0 l/m 0 min 0 min 5 W/m 0,0 km/h (0 Bft) 91,30 %
09.09.2016 20:44 19,2 C 16,7 C 13,9 C 73 % 0 lf 1016,7 hPa 0,0 l/m 0 min 0 min 5 W/m 0,0 km/h (0 Bft) 91,49 %
09.09.2016 20:46 19,1 C 16,7 C 13,9 C 73 % 0 lf 1016,7 hPa 0,0 l/m 0 min 0 min 5 W/m 0,0 km/h (0 Bft) 91,49 %
09.09.2016 20:48 19,0 C 16,1 C 13,9 C 74 % 0 lf 1016,7 hPa 0,0 l/m 0 min 0 min 5 W/m 0,0 km/h (0 Bft) 95,74 %
09.09.2016 20:50 18,9 C 16,1 C 13,9 C 74 % 0 lf 1016,8 hPa 0,0 l/m 0 min 0 min 5 W/m 0,0 km/h (0 Bft) 91,49 %
09.09.2016 20:52 18,8 C 16,1 C 13,9 C 74 % 0 lf 1016,8 hPa 0,0 l/m 0 min 0 min 5 W/m 0,0 km/h (0 Bft) 93,62 %
09.09.2016 20:54 18,7 C 16,1 C 13,3 C 74 % 0 lf 1016,8 hPa 0,0 l/m 0 min 0 min 5 W/m 0,0 km/h (0 Bft) 91,30 %
09.09.2016 20:56 18,6 C 16,1 C 13,3 C 74 % 0 lf 1016,9 hPa 0,0 l/m 0 min 0 min 5 W/m 0,0 km/h (0 Bft) 97,87 %
09.09.2016 20:58 18,6 C 16,1 C 13,3 C 74 % 0 lf 1016,9 hPa 0,0 l/m 0 min 0 min 5 W/m 0,0 km/h (0 Bft) 93,62 %
09.09.2016 21:00 18,4 C 16,1 C 13,3 C 75 % 0 lf 1017,0 hPa 0,0 l/m 0 min 0 min 5 W/m 0,0 km/h (0 Bft) 95,74 %
09.09.2016 21:02 18,4 C 16,1 C 13,3 C 75 % 0 lf 1017,0 hPa 0,0 l/m 0 min 0 min 0 W/m 0,0 km/h (0 Bft) 95,74 %
09.09.2016 21:04 18,3 C 16,1 C 13,3 C 75 % 0 lf 1016,9 hPa 0,0 l/m 0 min 0 min 0 W/m 0,0 km/h (0 Bft) 95,74 %
09.09.2016 21:06 18,3 C 16,1 C 13,3 C 75 % 0 lf 1016,9 hPa 0,0 l/m 0 min 0 min 0 W/m 0,0 km/h (0 Bft) 95,65 %
09.09.2016 21:08 18,2 C 16,1 C 13,3 C 76 % 0 lf 1016,9 hPa 0,0 l/m 0 min 0 min 0 W/m 0,0 km/h (0 Bft) 93,62 %
09.09.2016 21:10 18,1 C 16,1 C 13,3 C 76 % 0 lf 1017,0 hPa 0,0 l/m 0 min 0 min 0 W/m 0,0 km/h (0 Bft) 95,74 %
09.09.2016 21:12 18,1 C 16,1 C 13,3 C 76 % 0 lf 1017,0 hPa 0,0 l/m 0 min 0 min 5 W/m 0,0 km/h (0 Bft) 93,62 %
09.09.2016 21:14 18,0 C 15,6 C 13,3 C 76 % 1 lf 1017,0 hPa 0,0 l/m 0 min 0 min 5 W/m 0,0 km/h (0 Bft) 93,62 %
09.09.2016 21:16 17,9 C 15,6 C 13,3 C 77 % 1 lf 1017,1 hPa 0,0 l/m 0 min 0 min 0 W/m 0,0 km/h (0 Bft) 97,87 %
09.09.2016 21:18 17,8 C 15,6 C 13,3 C 77 % 1 lf 1017,0 hPa 0,0 l/m 0 min 0 min 0 W/m 0,0 km/h (0 Bft) 97,83 %
09.09.2016 21:20 17,8 C 15,6 C 13,3 C 77 % 1 lf 1017,0 hPa 0,0 l/m 0 min 0 min 0 W/m 0,0 km/h (0 Bft) 97,87 %
09.09.2016 21:22 17,7 C 15,6 C 13,3 C 78 % 1 lf 1017,0 hPa 0,0 l/m 0 min 0 min 0 W/m 0,0 km/h (0 Bft) 97,87 %
09.09.2016 21:24 17,7 C 15,0 C 13,3 C 78 % 1 lf 1016,9 hPa 0,0 l/m 0 min 0 min 0 W/m 0,0 km/h (0 Bft) 100,00 %
09.09.2016 21:26 17,6 C 15,0 C 13,3 C 78 % 1 lf 1017,0 hPa 0,0 l/m 0 min 0 min 0 W/m 0,0 km/h (0 Bft) 97,87 %
09.09.2016 21:28 17,5 C 15,0 C 12,8 C 78 % 1 lf 1017,0 hPa 0,0 l/m 0 min 0 min 0 W/m 0,0 km/h (0 Bft) 97,83 %
09.09.2016 21:30 17,4 C 15,0 C 12,8 C 79 % 1 lf 1017,0 hPa 0,0 l/m 0 min 0 min 0 W/m 0,0 km/h (0 Bft) 97,87 %
09.09.2016 21:32 17,4 C 15,0 C 12,8 C 79 % 1 lf 1016,9 hPa 0,0 l/m 0 min 0 min 0 W/m 0,0 km/h (0 Bft) 100,00 %
09.09.2016 21:34 17,3 C 15,0 C 12,8 C 79 % 1 lf 1016,9 hPa 0,0 l/m 0 min 0 min 0 W/m 0,0 km/h (0 Bft) 95,74 %
09.09.2016 21:36 17,3 C 15,0 C 12,8 C 79 % 1 lf 1016,9 hPa 0,0 l/m 0 min 0 min 0 W/m 4,2 km/h (1 Bft) 95,74 %
09.09.2016 21:38 17,2 C 15,0 C 12,8 C 79 % 1 lf 1017,0 hPa 0,0 l/m 0 min 0 min 1 W/m 4,2 km/h (1 Bft) 97,87 %
09.09.2016 21:40 17,2 C 15,0 C 12,8 C 79 % 1 lf 1017,0 hPa 0,0 l/m 0 min 0 min 5 W/m 2,1 km/h (1 Bft) 97,87 %
09.09.2016 21:42 17,1 C 14,4 C 12,8 C 79 % 1 lf 1016,9 hPa 0,0 l/m 0 min 0 min 5 W/m 4,2 km/h (1 Bft) 97,83 %
09.09.2016 21:44 17,1 C 14,4 C 12,8 C 79 % 1 lf 1016,9 hPa 0,0 l/m 0 min 0 min 5 W/m 4,2 km/h (1 Bft) 100,00 %
09.09.2016 21:46 17,0 C 15,0 C 12,8 C 80 % 1 lf 1016,9 hPa 0,0 l/m 0 min 0 min 0 W/m 2,1 km/h (1 Bft) 97,87 %
09.09.2016 21:48 16,9 C 15,0 C 12,8 C 80 % 1 lf 1017,0 hPa 0,0 l/m 0 min 0 min 0 W/m 0,0 km/h (0 Bft) 97,87 %
09.09.2016 21:50 16,9 C 15,0 C 12,8 C 80 % 1 lf 1016,9 hPa 0,0 l/m 0 min 0 min 0 W/m 0,0 km/h (0 Bft) 97,87 %
09.09.2016 21:52 16,9 C 14,4 C 12,8 C 80 % 1 lf 1016,9 hPa 0,0 l/m 0 min 0 min 0 W/m 0,0 km/h (0 Bft) 95,65 %
09.09.2016 21:54 16,8 C 14,4 C 12,8 C 80 % 1 lf 1016,9 hPa 0,0 l/m 0 min 0 min 5 W/m 0,0 km/h (0 Bft) 95,74 %
09.09.2016 21:56 16,7 C 14,4 C 12,8 C 80 % 1 lf 1016,9 hPa 0,0 l/m 0 min 0 min 5 W/m 0,0 km/h (0 Bft) 95,74 %
09.09.2016 21:58 16,7 C 15,0 C 12,8 C 80 % 1 lf 1017,0 hPa 0,0 l/m 0 min 0 min 5 W/m 0,0 km/h (0 Bft) 97,87 %
09.09.2016 22:00 16,7 C 14,4 C 12,2 C 80 % 1 lf 1017,0 hPa 0,0 l/m 0 min 0 min 0 W/m 0,0 km/h (0 Bft) 97,87 %
09.09.2016 22:02 16,6 C 15,0 C 12,2 C 80 % 1 lf 1016,9 hPa 0,0 l/m 0 min 0 min 0 W/m 0,0 km/h (0 Bft) 97,87 %
09.09.2016 22:04 16,6 C 14,4 C 12,2 C 80 % 1 lf 1016,9 hPa 0,0 l/m 0 min 0 min 0 W/m 0,0 km/h (0 Bft) 97,83 %
09.09.2016 22:06 16,5 C 14,4 C 12,2 C 80 % 1 lf 1016,9 hPa 0,0 l/m 0 min 0 min 0 W/m 0,0 km/h (0 Bft) 97,87 %
09.09.2016 22:08 16,4 C 14,4 C 12,2 C 81 % 1 lf 1016,9 hPa 0,0 l/m 0 min 0 min 5 W/m 0,0 km/h (0 Bft) 93,62 %
09.09.2016 22:10 16,4 C 14,4 C 12,2 C 81 % 1 lf 1016,9 hPa 0,0 l/m 0 min 0 min 5 W/m 0,0 km/h (0 Bft) 95,74 %
09.09.2016 22:12 16,3 C 14,4 C 12,2 C 81 % 1 lf 1017,0 hPa 0,0 l/m 0 min 0 min 5 W/m 0,0 km/h (0 Bft) 97,87 %
09.09.2016 22:14 16,3 C 14,4 C 12,2 C 81 % 1 lf 1017,0 hPa 0,0 l/m 0 min 0 min 0 W/m 0,0 km/h (0 Bft) 97,87 %
09.09.2016 22:16 16,3 C 14,4 C 12,2 C 81 % 1 lf 1016,9 hPa 0,0 l/m 0 min 0 min 0 W/m 0,0 km/h (0 Bft) 95,65 %
09.09.2016 22:18 16,2 C 14,4 C 12,2 C 81 % 1 lf 1017,0 hPa 0,0 l/m 0 min 0 min 5 W/m 0,0 km/h (0 Bft) 95,74 %
09.09.2016 22:20 16,2 C 13,9 C 12,2 C 82 % 1 lf 1016,9 hPa 0,0 l/m 0 min 0 min 5 W/m 0,0 km/h (0 Bft) 93,62 %
09.09.2016 22:22 16,1 C 13,9 C 12,2 C 82 % 1 lf 1016,9 hPa 0,0 l/m 0 min 0 min 5 W/m 0,0 km/h (0 Bft) 95,74 %
09.09.2016 22:24 16,1 C 13,9 C 12,2 C 82 % 1 lf 1016,9 hPa 0,0 l/m 0 min 0 min 5 W/m 0,0 km/h (0 Bft) 95,74 %
09.09.2016 22:26 16,1 C 14,4 C 12,2 C 82 % 1 lf 1017,0 hPa 0,0 l/m 0 min 0 min 0 W/m 0,0 km/h (0 Bft) 95,65 %
09.09.2016 22:28 16,0 C 14,4 C 12,2 C 82 % 1 lf 1017,0 hPa 0,0 l/m 0 min 0 min 5 W/m 0,0 km/h (0 Bft) 93,62 %
09.09.2016 22:30 15,9 C 13,9 C 12,2 C 82 % 1 lf 1017,0 hPa 0,0 l/m 0 min 0 min 0 W/m 0,0 km/h (0 Bft) 93,62 %
09.09.2016 22:32 15,9 C 13,9 C 12,2 C 82 % 1 lf 1016,9 hPa 0,0 l/m 0 min 0 min 2 W/m 0,0 km/h (0 Bft) 95,74 %
09.09.2016 22:34 15,9 C 13,9 C 12,2 C 82 % 1 lf 1016,9 hPa 0,0 l/m 0 min 0 min 0 W/m 0,0 km/h (0 Bft) 95,74 %
09.09.2016 22:36 15,8 C 13,9 C 12,2 C 83 % 1 lf 1016,9 hPa 0,0 l/m 0 min 0 min 5 W/m 0,0 km/h (0 Bft) 95,74 %
09.09.2016 22:38 15,8 C 13,9 C 12,2 C 83 % 1 lf 1016,9 hPa 0,0 l/m 0 min 0 min 0 W/m 0,0 km/h (0 Bft) 95,74 %
09.09.2016 22:40 15,7 C 14,4 C 12,2 C 83 % 1 lf 1017,0 hPa 0,0 l/m 0 min 0 min 0 W/m 0,0 km/h (0 Bft) 93,48 %
09.09.2016 22:42 15,7 C 14,4 C 12,2 C 83 % 1 lf 1016,9 hPa 0,0 l/m 0 min 0 min 5 W/m 0,0 km/h (0 Bft) 93,62 %
09.09.2016 22:44 15,7 C 14,4 C 12,2 C 84 % 1 lf 1016,9 hPa 0,0 l/m 0 min 0 min 0 W/m 0,0 km/h (0 Bft) 95,74 %
09.09.2016 22:46 15,6 C 14,4 C 12,2 C 84 % 1 lf 1017,0 hPa 0,0 l/m 0 min 0 min 5 W/m 0,0 km/h (0 Bft) 95,74 %
09.09.2016 22:48 15,6 C 14,4 C 12,2 C 84 % 1 lf 1017,0 hPa 0,0 l/m 0 min 0 min 5 W/m 0,0 km/h (0 Bft) 97,87 %
09.09.2016 22:50 15,6 C 13,9 C 12,2 C 84 % 1 lf 1017,0 hPa 0,0 l/m 0 min 0 min 0 W/m 0,0 km/h (0 Bft) 97,83 %
09.09.2016 22:52 15,5 C 13,9 C 12,2 C 84 % 1 lf 1017,0 hPa 0,0 l/m 0 min 0 min 5 W/m 0,0 km/h (0 Bft) 95,74 %
09.09.2016 22:54 15,5 C 13,9 C 12,2 C 84 % 1 lf 1016,9 hPa 0,0 l/m 0 min 0 min 5 W/m 0,0 km/h (0 Bft) 97,87 %
09.09.2016 22:56 15,4 C 14,4 C 12,2 C 84 % 1 lf 1016,9 hPa 0,0 l/m 0 min 0 min 5 W/m 0,0 km/h (0 Bft) 95,74 %
09.09.2016 22:58 15,4 C 13,9 C 12,2 C 84 % 1 lf 1016,9 hPa 0,0 l/m 0 min 0 min 5 W/m 0,0 km/h (0 Bft) 97,87 %
09.09.2016 23:00 15,4 C 13,9 C 12,2 C 84 % 1 lf 1016,9 hPa 0,0 l/m 0 min 0 min 5 W/m 0,0 km/h (0 Bft) 95,74 %
09.09.2016 23:02 15,3 C 13,9 C 11,7 C 85 % 2 lf 1016,9 hPa 0,0 l/m 0 min 0 min 5 W/m 0,0 km/h (0 Bft) 95,65 %
09.09.2016 23:04 15,3 C 13,9 C 11,7 C 85 % 2 lf 1016,9 hPa 0,0 l/m 0 min 0 min 5 W/m 0,0 km/h (0 Bft) 93,62 %
09.09.2016 23:06 15,3 C 13,9 C 11,7 C 85 % 2 lf 1016,9 hPa 0,0 l/m 0 min 0 min 5 W/m 0,0 km/h (0 Bft) 97,87 %
09.09.2016 23:08 15,3 C 13,9 C 11,7 C 85 % 2 lf 1016,9 hPa 0,0 l/m 0 min 0 min 5 W/m 0,0 km/h (0 Bft) 100,00 %
09.09.2016 23:10 15,2 C 13,9 C 11,7 C 85 % 2 lf 1016,9 hPa 0,0 l/m 0 min 0 min 3 W/m 0,0 km/h (0 Bft) 97,87 %
09.09.2016 23:12 15,2 C 13,9 C 11,7 C 85 % 2 lf 1016,9 hPa 0,0 l/m 0 min 0 min 5 W/m 0,0 km/h (0 Bft) 97,87 %
09.09.2016 23:14 15,2 C 13,9 C 12,2 C 85 % 2 lf 1016,9 hPa 0,0 l/m 0 min 0 min 5 W/m 2,1 km/h (1 Bft) 100,00 %
09.09.2016 23:16 15,2 C 14,4 C 12,2 C 86 % 2 lf 1017,0 hPa 0,0 l/m 0 min 0 min 0 W/m 2,1 km/h (1 Bft) 97,87 %
09.09.2016 23:18 15,2 C 14,4 C 12,2 C 86 % 2 lf 1017,0 hPa 0,0 l/m 0 min 0 min 0 W/m 2,1 km/h (1 Bft) 95,74 %
09.09.2016 23:20 15,2 C 14,4 C 12,2 C 87 % 3 lf 1017,0 hPa 0,0 l/m 0 min 0 min 0 W/m 2,1 km/h (1 Bft) 95,74 %
09.09.2016 23:22 15,2 C 14,4 C 12,2 C 87 % 3 lf 1017,0 hPa 0,0 l/m 0 min 0 min 2 W/m 2,1 km/h (1 Bft) 95,74 %
09.09.2016 23:24 15,1 C 14,4 C 12,2 C 87 % 3 lf 1017,0 hPa 0,0 l/m 0 min 0 min 0 W/m 0,0 km/h (0 Bft) 95,74 %
09.09.2016 23:26 15,1 C 13,9 C 12,2 C 87 % 3 lf 1017,0 hPa 0,0 l/m 0 min 0 min 0 W/m 0,0 km/h (0 Bft) 95,65 %
09.09.2016 23:28 15,1 C 13,9 C 11,7 C 87 % 3 lf 1017,0 hPa 0,0 l/m 0 min 0 min 5 W/m 2,1 km/h (1 Bft) 89,36 %
09.09.2016 23:30 15,1 C 13,9 C 11,7 C 87 % 3 lf 1017,0 hPa 0,0 l/m 0 min 0 min 2 W/m 2,1 km/h (1 Bft) 93,62 %
09.09.2016 23:32 15,1 C 13,9 C 12,2 C 87 % 3 lf 1017,0 hPa 0,0 l/m 0 min 0 min 0 W/m 6,3 km/h (2 Bft) 95,74 %
09.09.2016 23:34 15,0 C 13,9 C 12,2 C 88 % 2 lf 1017,0 hPa 0,0 l/m 0 min 0 min 0 W/m 6,3 km/h (2 Bft) 89,36 %
09.09.2016 23:36 15,0 C 13,3 C 12,2 C 88 % 2 lf 1017,0 hPa 0,0 l/m 0 min 0 min 0 W/m 4,2 km/h (1 Bft) 95,74 %
09.09.2016 23:38 15,0 C 13,3 C 11,7 C 88 % 2 lf 1017,0 hPa 0,0 l/m 0 min 0 min 0 W/m 2,1 km/h (1 Bft) 95,65 %
09.09.2016 23:40 14,9 C 13,3 C 11,7 C 88 % 2 lf 1017,0 hPa 0,0 l/m 0 min 0 min 0 W/m 2,1 km/h (1 Bft) 91,49 %
09.09.2016 23:42 14,9 C 13,3 C 11,7 C 88 % 2 lf 1017,0 hPa 0,0 l/m 0 min 0 min 0 W/m 0,0 km/h (0 Bft) 95,74 %
09.09.2016 23:44 14,9 C 13,3 C 11,7 C 88 % 2 lf 1016,9 hPa 0,0 l/m 0 min 0 min 0 W/m 0,0 km/h (0 Bft) 93,62 %
09.09.2016 23:46 14,9 C 13,3 C 11,7 C 88 % 2 lf 1016,9 hPa 0,0 l/m 0 min 0 min 0 W/m 0,0 km/h (0 Bft) 93,62 %
09.09.2016 23:48 14,8 C 13,3 C 11,7 C 88 % 2 lf 1017,0 hPa 0,0 l/m 0 min 0 min 0 W/m 0,0 km/h (0 Bft) 95,74 %
09.09.2016 23:50 14,8 C 13,3 C 11,7 C 88 % 2 lf 1016,9 hPa 0,0 l/m 0 min 0 min 0 W/m 0,0 km/h (0 Bft) 93,48 %
09.09.2016 23:52 14,7 C 13,3 C 11,7 C 88 % 2 lf 1017,0 hPa 0,0 l/m 0 min 0 min 0 W/m 0,0 km/h (0 Bft) 93,62 %
09.09.2016 23:54 14,7 C 13,3 C 11,7 C 88 % 2 lf 1016,9 hPa 0,0 l/m 0 min 0 min 0 W/m 0,0 km/h (0 Bft) 95,74 %
09.09.2016 23:56 14,7 C 13,3 C 11,7 C 88 % 2 lf 1016,9 hPa 0,0 l/m 0 min 0 min 0 W/m 0,0 km/h (0 Bft) 91,49 %
09.09.2016 23:58 14,6 C 12,8 C 11,7 C 88 % 2 lf 1016,9 hPa 0,0 l/m 0 min 0 min 0 W/m 0,0 km/h (0 Bft) 91,49 %
_ Min-Zeit 23:58 23:58 23:02 18:10 00:00 00:00 - - - - 19:36 01:46
Minimum _ 14,6 C 12,8 C 11,7 C 51 % 0 lf 1014,8 hPa - - - - 0,0 km/h (0 Bft) 86,96 %
_ Max-Zeit 17:46 13:46 15:16 06:42 23:20 10:50 00:00 10:02 00:00 13:04 00:24 00:02
Maximum _ 24,5 C 33,9 C 27,2 C 90 % 3 lf 1018,7 hPa 0,0 l/m 2 min 0 min 1512 W/m 31,4 km/h
W-NW (5 Bft)
100,00 %
Durchschnitt _ 19,1 C 20,6 C 17,3 C 76 % 0 lf 1017,0 hPa #0,0 l/m #8:34 h #0 min. 343 W/m 8,4 km/h (2 Bft) 96,28 %
© 2016 W. Hausmann